GEFSNE_prec_meanprecacc_126.txt.gz
Total_Precipitation_Accumulation
0.37 0.46 0.47 0.43 0.43 0.43 0.47 0.58 0.66 0.58 0.58 0.66 0.77 0.86 0.96 0.97 0.97 0.86 0.70 0.69 0.62 0.55 0.51 0.48 0.49 0.54 0.61 0.66 0.70 0.77 0.85 0.89 0.99 1.17 1.42 1.67 1.91 2.13
0.46 0.51 0.56 0.56 0.56 0.56 0.56 0.64 0.77 0.75 0.70 0.69 0.76 0.77 0.77 0.63 0.66 0.66 0.64 0.65 0.57 0.52 0.49 0.46 0.43 0.44 0.46 0.52 0.56 0.57 0.60 0.62 0.63 0.67 0.75 0.86 1.02 1.29
0.45 0.50 0.55 0.61 0.68 0.70 0.74 0.74 0.77 0.87 0.82 0.69 0.79 0.87 0.79 0.63 0.54 0.54 0.55 0.56 0.54 0.53 0.50 0.49 0.47 0.45 0.43 0.42 0.46 0.50 0.49 0.50 0.50 0.49 0.50 0.53 0.53 0.56
0.46 0.55 0.57 0.59 0.66 0.73 0.83 0.84 0.85 0.98 0.96 0.82 0.88 0.97 0.89 0.77 0.64 0.56 0.46 0.44 0.46 0.51 0.51 0.51 0.50 0.47 0.44 0.42 0.39 0.38 0.38 0.38 0.39 0.39 0.38 0.37 0.37 0.37
0.51 0.59 0.64 0.70 0.72 0.76 0.84 0.86 0.91 1.06 1.10 1.02 0.99 1.10 1.13 0.92 0.72 0.56 0.46 0.46 0.41 0.45 0.49 0.50 0.49 0.46 0.43 0.42 0.42 0.38 0.34 0.32 0.30 0.30 0.31 0.32 0.33 0.33
0.60 0.61 0.64 0.74 0.81 0.86 0.92 1.02 1.08 1.16 1.23 1.19 1.20 1.30 1.30 1.17 0.95 0.67 0.58 0.56 0.50 0.43 0.47 0.49 0.47 0.44 0.41 0.37 0.35 0.36 0.36 0.35 0.33 0.29 0.27 0.26 0.26 0.25
0.56 0.61 0.62 0.65 0.72 0.84 0.89 1.00 1.14 1.29 1.44 1.49 1.48 1.63 1.58 1.41 1.16 0.85 0.72 0.64 0.58 0.52 0.50 0.43 0.41 0.38 0.36 0.36 0.35 0.35 0.33 0.32 0.32 0.32 0.29 0.26 0.25 0.24
0.59 0.63 0.61 0.58 0.58 0.63 0.71 0.82 0.95 1.11 1.31 1.51 1.63 1.72 1.78 1.64 1.43 1.17 0.85 0.65 0.58 0.57 0.59 0.52 0.47 0.44 0.39 0.35 0.39 0.36 0.35 0.32 0.30 0.29 0.29 0.31 0.29 0.26
0.61 0.62 0.54 0.46 0.51 0.52 0.56 0.60 0.67 0.77 0.92 1.13 1.32 1.42 1.61 1.73 1.60 1.30 1.03 0.82 0.66 0.62 0.64 0.55 0.52 0.50 0.44 0.40 0.45 0.39 0.34 0.33 0.31 0.28 0.28 0.28 0.29 0.30
0.60 0.61 0.57 0.50 0.49 0.54 0.58 0.56 0.55 0.57 0.64 0.74 0.88 1.10 1.31 1.53 1.59 1.47 1.37 1.11 0.85 0.68 0.65 0.57 0.48 0.45 0.45 0.43 0.45 0.42 0.38 0.36 0.34 0.32 0.30 0.29 0.28 0.28
0.57 0.58 0.60 0.53 0.49 0.44 0.50 0.52 0.51 0.51 0.50 0.57 0.67 0.85 1.09 1.26 1.44 1.43 1.33 1.19 0.95 0.71 0.60 0.54 0.45 0.42 0.41 0.37 0.38 0.40 0.38 0.38 0.38 0.36 0.34 0.34 0.33 0.32
0.65 0.66 0.63 0.54 0.50 0.41 0.44 0.49 0.46 0.45 0.49 0.49 0.53 0.62 0.73 0.97 1.18 1.22 1.14 1.07 0.94 0.73 0.54 0.50 0.42 0.42 0.43 0.32 0.27 0.28 0.31 0.37 0.41 0.40 0.39 0.38 0.37 0.30
0.67 0.66 0.66 0.58 0.45 0.37 0.36 0.40 0.38 0.41 0.50 0.53 0.54 0.60 0.70 0.83 1.01 1.10 1.09 0.97 0.86 0.69 0.53 0.50 0.46 0.42 0.38 0.30 0.25 0.25 0.25 0.26 0.29 0.35 0.41 0.46 0.44 0.35
0.67 0.69 0.70 0.60 0.48 0.40 0.32 0.30 0.31 0.32 0.42 0.48 0.51 0.53 0.59 0.68 0.83 1.06 1.17 1.10 0.92 0.77 0.70 0.66 0.56 0.50 0.42 0.30 0.25 0.24 0.28 0.29 0.28 0.28 0.34 0.47 0.52 0.51
0.68 0.79 0.78 0.66 0.59 0.52 0.43 0.35 0.32 0.31 0.37 0.45 0.43 0.45 0.49 0.58 0.75 1.05 1.29 1.43 1.29 1.02 0.88 0.80 0.73 0.65 0.58 0.43 0.29 0.23 0.26 0.29 0.29 0.29 0.30 0.36 0.42 0.48
0.63 0.75 0.80 0.79 0.73 0.66 0.55 0.42 0.33 0.33 0.35 0.42 0.46 0.50 0.59 0.68 0.80 0.88 1.10 1.29 1.36 1.19 1.00 0.90 0.83 0.82 0.72 0.54 0.40 0.29 0.25 0.26 0.27 0.29 0.33 0.34 0.39 0.46
0.67 0.82 0.94 0.98 0.99 0.92 0.79 0.65 0.54 0.50 0.47 0.48 0.58 0.62 0.68 0.71 0.74 0.79 0.94 1.09 1.10 1.02 0.96 0.94 0.95 0.94 0.91 0.81 0.59 0.39 0.31 0.25 0.25 0.32 0.40 0.40 0.40 0.45
0.49 0.74 1.00 1.10 1.14 1.13 1.03 0.87 0.75 0.69 0.65 0.65 0.70 0.72 0.73 0.77 0.80 0.85 0.93 1.03 1.02 0.93 0.90 0.89 0.98 1.06 1.01 0.92 0.72 0.55 0.41 0.34 0.30 0.37 0.43 0.45 0.42 0.44
0.35 0.56 0.85 1.06 1.16 1.21 1.15 0.99 0.84 0.80 0.83 0.80 0.78 0.78 0.77 0.78 0.85 0.90 0.93 0.98 1.02 0.97 0.89 0.91 0.97 1.04 0.97 0.77 0.62 0.56 0.53 0.46 0.46 0.44 0.45 0.46 0.42 0.40
0.31 0.46 0.71 0.98 1.08 1.15 1.14 1.08 0.98 0.94 0.95 0.91 0.87 0.85 0.83 0.84 0.82 0.85 0.89 0.92 0.95 1.00 0.93 0.88 0.89 0.89 0.86 0.77 0.68 0.60 0.55 0.58 0.61 0.56 0.49 0.51 0.52 0.53
0.40 0.46 0.61 0.83 0.98 1.07 1.09 1.07 1.03 1.02 1.01 1.01 0.98 0.95 0.92 0.93 0.89 0.84 0.88 0.95 0.99 1.03 0.94 0.75 0.73 0.86 1.01 1.10 0.95 0.69 0.57 0.58 0.67 0.70 0.65 0.65 0.63 0.62
0.50 0.52 0.59 0.75 0.91 1.03 1.06 1.04 1.07 1.06 1.08 1.07 1.04 1.01 0.96 0.96 0.97 0.95 0.97 1.00 0.96 0.93 0.93 0.88 0.93 1.04 1.08 1.03 0.88 0.77 0.69 0.66 0.73 0.77 0.72 0.67 0.63 0.56
0.62 0.59 0.63 0.75 0.85 0.96 0.99 0.98 1.01 1.08 1.08 1.07 1.05 1.05 1.02 1.00 1.02 1.04 1.03 1.06 1.05 1.04 1.10 1.15 1.13 1.08 1.01 0.98 0.91 0.86 0.82 0.77 0.79 0.78 0.68 0.64 0.54 0.48

GEFSNE_prec_meanprecacc_132.txt.gz
Total_Precipitation_Accumulation
0.40 0.48 0.48 0.44 0.44 0.44 0.48 0.60 0.69 0.63 0.63 0.70 0.79 0.88 0.98 1.00 1.00 0.87 0.72 0.71 0.64 0.56 0.51 0.48 0.49 0.54 0.61 0.66 0.70 0.78 0.85 0.89 0.99 1.17 1.42 1.67 1.91 2.13
0.49 0.54 0.59 0.58 0.57 0.57 0.57 0.65 0.78 0.77 0.73 0.72 0.79 0.81 0.81 0.67 0.68 0.67 0.65 0.67 0.58 0.52 0.50 0.47 0.44 0.44 0.47 0.52 0.56 0.58 0.60 0.62 0.63 0.67 0.75 0.86 1.02 1.29
0.50 0.54 0.59 0.66 0.72 0.73 0.76 0.76 0.79 0.89 0.85 0.72 0.82 0.91 0.83 0.65 0.55 0.55 0.56 0.57 0.54 0.53 0.50 0.49 0.47 0.45 0.44 0.42 0.46 0.50 0.49 0.50 0.50 0.49 0.50 0.53 0.53 0.57
0.55 0.64 0.65 0.65 0.72 0.78 0.87 0.88 0.89 1.02 1.01 0.88 0.93 1.02 0.92 0.79 0.65 0.57 0.47 0.44 0.46 0.51 0.51 0.51 0.50 0.47 0.44 0.42 0.39 0.38 0.38 0.38 0.39 0.39 0.38 0.37 0.37 0.37
0.61 0.69 0.73 0.78 0.80 0.82 0.89 0.91 0.96 1.10 1.15 1.07 1.04 1.14 1.15 0.94 0.75 0.59 0.48 0.49 0.41 0.45 0.49 0.50 0.49 0.46 0.43 0.42 0.42 0.38 0.34 0.32 0.30 0.30 0.31 0.32 0.33 0.33
0.69 0.69 0.71 0.80 0.87 0.93 0.99 1.09 1.14 1.21 1.29 1.26 1.25 1.36 1.36 1.23 1.00 0.73 0.64 0.61 0.53 0.44 0.48 0.49 0.48 0.45 0.41 0.37 0.35 0.36 0.36 0.35 0.33 0.29 0.27 0.26 0.26 0.25
0.63 0.68 0.68 0.70 0.77 0.89 0.94 1.07 1.22 1.38 1.54 1.59 1.58 1.72 1.68 1.50 1.23 0.91 0.78 0.69 0.61 0.54 0.51 0.44 0.41 0.38 0.36 0.36 0.35 0.35 0.33 0.32 0.32 0.32 0.29 0.26 0.25 0.24
0.67 0.71 0.68 0.65 0.64 0.69 0.76 0.88 1.02 1.19 1.40 1.60 1.72 1.81 1.85 1.70 1.49 1.23 0.90 0.69 0.61 0.59 0.60 0.53 0.47 0.44 0.39 0.35 0.39 0.36 0.35 0.32 0.30 0.29 0.29 0.31 0.29 0.26
0.72 0.74 0.64 0.54 0.59 0.59 0.62 0.66 0.73 0.83 0.97 1.19 1.39 1.48 1.66 1.78 1.64 1.34 1.06 0.85 0.68 0.63 0.65 0.56 0.52 0.50 0.44 0.40 0.45 0.39 0.34 0.33 0.31 0.28 0.28 0.28 0.29 0.30
0.68 0.70 0.67 0.58 0.56 0.61 0.64 0.61 0.59 0.60 0.68 0.77 0.92 1.13 1.34 1.55 1.61 1.50 1.39 1.13 0.86 0.69 0.66 0.58 0.48 0.45 0.45 0.43 0.45 0.42 0.38 0.36 0.34 0.32 0.30 0.29 0.28 0.28
0.65 0.65 0.66 0.58 0.55 0.49 0.55 0.56 0.54 0.53 0.53 0.59 0.68 0.86 1.10 1.27 1.45 1.44 1.33 1.20 0.96 0.71 0.60 0.55 0.45 0.42 0.41 0.37 0.38 0.40 0.38 0.38 0.38 0.36 0.34 0.34 0.33 0.32
0.74 0.73 0.70 0.59 0.55 0.45 0.48 0.52 0.50 0.48 0.52 0.51 0.55 0.63 0.75 0.98 1.20 1.23 1.15 1.08 0.95 0.73 0.54 0.50 0.43 0.42 0.43 0.32 0.27 0.28 0.31 0.37 0.41 0.40 0.39 0.38 0.37 0.30
0.78 0.75 0.75 0.65 0.50 0.40 0.39 0.43 0.42 0.44 0.52 0.55 0.55 0.61 0.71 0.83 1.02 1.11 1.10 0.98 0.86 0.70 0.53 0.50 0.46 0.42 0.38 0.30 0.25 0.25 0.25 0.26 0.29 0.35 0.42 0.46 0.44 0.35
0.78 0.78 0.77 0.66 0.52 0.44 0.36 0.33 0.33 0.34 0.44 0.50 0.52 0.53 0.59 0.68 0.83 1.06 1.18 1.10 0.92 0.77 0.70 0.66 0.56 0.50 0.42 0.30 0.25 0.25 0.28 0.29 0.28 0.28 0.34 0.47 0.52 0.51
0.76 0.88 0.86 0.72 0.64 0.57 0.48 0.39 0.36 0.34 0.41 0.48 0.45 0.45 0.49 0.58 0.75 1.05 1.30 1.43 1.30 1.02 0.88 0.81 0.73 0.65 0.59 0.43 0.29 0.24 0.26 0.29 0.29 0.29 0.30 0.37 0.43 0.49
0.73 0.85 0.89 0.87 0.80 0.72 0.61 0.47 0.36 0.36 0.37 0.43 0.47 0.50 0.59 0.68 0.80 0.88 1.10 1.30 1.36 1.20 1.00 0.90 0.83 0.82 0.72 0.55 0.41 0.30 0.25 0.26 0.27 0.30 0.34 0.35 0.40 0.47
0.81 0.95 1.06 1.08 1.07 0.98 0.83 0.68 0.57 0.52 0.49 0.50 0.59 0.64 0.69 0.72 0.75 0.79 0.94 1.09 1.10 1.02 0.96 0.94 0.95 0.94 0.92 0.82 0.60 0.39 0.31 0.26 0.26 0.33 0.41 0.41 0.41 0.46
0.59 0.83 1.08 1.16 1.19 1.18 1.08 0.91 0.79 0.71 0.67 0.67 0.70 0.72 0.73 0.77 0.80 0.85 0.93 1.03 1.02 0.93 0.90 0.89 0.98 1.07 1.01 0.92 0.72 0.55 0.42 0.34 0.31 0.38 0.44 0.47 0.43 0.45
0.40 0.61 0.89 1.10 1.19 1.23 1.17 1.01 0.85 0.80 0.84 0.81 0.78 0.78 0.77 0.78 0.85 0.90 0.93 0.99 1.02 0.97 0.89 0.91 0.98 1.05 0.98 0.77 0.62 0.56 0.53 0.47 0.47 0.45 0.46 0.48 0.44 0.40
0.33 0.48 0.72 0.99 1.09 1.15 1.14 1.08 0.98 0.95 0.95 0.91 0.87 0.85 0.83 0.84 0.82 0.85 0.89 0.92 0.95 1.00 0.93 0.88 0.90 0.90 0.87 0.78 0.69 0.60 0.55 0.60 0.62 0.57 0.50 0.52 0.53 0.53
0.41 0.46 0.61 0.83 0.98 1.07 1.09 1.07 1.03 1.02 1.01 1.01 0.98 0.95 0.92 0.94 0.89 0.84 0.88 0.95 1.00 1.04 0.94 0.76 0.74 0.87 1.02 1.11 0.97 0.70 0.59 0.60 0.69 0.72 0.66 0.66 0.64 0.62
0.50 0.52 0.60 0.75 0.91 1.03 1.06 1.04 1.07 1.06 1.08 1.07 1.04 1.01 0.96 0.96 0.97 0.96 0.97 1.01 0.96 0.94 0.93 0.89 0.93 1.04 1.09 1.04 0.89 0.79 0.70 0.67 0.74 0.78 0.73 0.67 0.63 0.56
0.62 0.59 0.63 0.75 0.85 0.96 0.99 0.98 1.01 1.08 1.08 1.07 1.05 1.05 1.02 1.00 1.02 1.04 1.03 1.06 1.05 1.05 1.11 1.15 1.13 1.09 1.02 1.00 0.94 0.89 0.85 0.79 0.80 0.79 0.68 0.64 0.54 0.48

GEFSNE_prec_meanprecacc_138.txt.gz
Total_Precipitation_Accumulation
0.43 0.51 0.50 0.45 0.45 0.45 0.49 0.61 0.70 0.63 0.63 0.71 0.81 0.89 1.01 1.03 1.02 0.94 0.78 0.74 0.65 0.57 0.52 0.49 0.51 0.55 0.62 0.66 0.71 0.78 0.85 0.90 0.99 1.18 1.43 1.68 1.91 2.14
0.55 0.59 0.63 0.60 0.59 0.58 0.58 0.66 0.79 0.79 0.74 0.73 0.81 0.84 0.84 0.71 0.70 0.70 0.67 0.68 0.59 0.53 0.51 0.48 0.45 0.45 0.47 0.53 0.56 0.58 0.60 0.62 0.63 0.68 0.75 0.87 1.03 1.30
0.58 0.61 0.64 0.70 0.76 0.76 0.79 0.78 0.81 0.92 0.87 0.74 0.84 0.93 0.86 0.69 0.59 0.58 0.58 0.59 0.56 0.55 0.52 0.50 0.47 0.46 0.44 0.42 0.47 0.50 0.49 0.50 0.50 0.50 0.51 0.53 0.53 0.57
0.64 0.72 0.72 0.72 0.79 0.83 0.92 0.92 0.93 1.06 1.05 0.91 0.96 1.04 0.95 0.82 0.69 0.60 0.49 0.47 0.48 0.53 0.52 0.52 0.50 0.47 0.45 0.42 0.40 0.39 0.39 0.38 0.39 0.39 0.38 0.37 0.37 0.37
0.73 0.78 0.80 0.86 0.88 0.90 0.96 0.97 1.01 1.14 1.19 1.12 1.11 1.21 1.23 1.03 0.82 0.64 0.51 0.51 0.43 0.47 0.50 0.52 0.50 0.47 0.44 0.43 0.43 0.39 0.35 0.33 0.30 0.30 0.31 0.32 0.33 0.33
0.81 0.81 0.80 0.87 0.96 1.02 1.08 1.18 1.24 1.32 1.38 1.33 1.33 1.45 1.48 1.34 1.10 0.81 0.70 0.66 0.56 0.47 0.51 0.52 0.50 0.47 0.42 0.38 0.37 0.36 0.36 0.35 0.33 0.29 0.27 0.26 0.26 0.25
0.73 0.79 0.78 0.80 0.87 0.98 1.03 1.17 1.32 1.49 1.66 1.71 1.70 1.83 1.78 1.60 1.33 1.00 0.86 0.76 0.67 0.58 0.55 0.47 0.44 0.41 0.39 0.38 0.36 0.35 0.34 0.32 0.32 0.32 0.30 0.26 0.25 0.24
0.81 0.86 0.83 0.78 0.77 0.82 0.89 0.99 1.12 1.29 1.51 1.71 1.83 1.91 1.94 1.78 1.57 1.30 0.96 0.74 0.65 0.61 0.62 0.55 0.48 0.45 0.40 0.36 0.39 0.37 0.35 0.32 0.30 0.29 0.29 0.31 0.29 0.26
0.87 0.91 0.80 0.70 0.74 0.72 0.75 0.77 0.83 0.92 1.06 1.29 1.49 1.58 1.74 1.83 1.68 1.37 1.09 0.89 0.71 0.66 0.66 0.57 0.53 0.51 0.44 0.41 0.46 0.39 0.34 0.33 0.31 0.28 0.28 0.28 0.29 0.30
0.81 0.83 0.81 0.72 0.69 0.72 0.73 0.69 0.65 0.66 0.73 0.82 0.96 1.18 1.38 1.59 1.64 1.52 1.41 1.15 0.88 0.71 0.68 0.59 0.49 0.46 0.45 0.43 0.45 0.42 0.38 0.36 0.34 0.32 0.30 0.29 0.28 0.28
0.81 0.80 0.80 0.71 0.67 0.59 0.62 0.62 0.60 0.59 0.59 0.65 0.73 0.92 1.15 1.32 1.49 1.47 1.36 1.23 1.00 0.75 0.63 0.57 0.47 0.43 0.41 0.37 0.38 0.40 0.38 0.38 0.38 0.36 0.34 0.34 0.33 0.32
0.88 0.86 0.81 0.70 0.66 0.57 0.60 0.63 0.59 0.55 0.57 0.56 0.60 0.68 0.79 1.02 1.23 1.26 1.18 1.12 0.98 0.77 0.58 0.52 0.44 0.43 0.44 0.33 0.27 0.29 0.31 0.37 0.41 0.40 0.39 0.38 0.37 0.30
0.88 0.85 0.85 0.76 0.61 0.51 0.49 0.52 0.51 0.52 0.58 0.60 0.60 0.65 0.74 0.86 1.04 1.12 1.11 0.99 0.88 0.72 0.54 0.52 0.47 0.43 0.39 0.31 0.25 0.25 0.25 0.26 0.29 0.35 0.42 0.46 0.44 0.35
0.86 0.87 0.88 0.79 0.64 0.54 0.47 0.45 0.45 0.44 0.51 0.57 0.58 0.58 0.63 0.71 0.86 1.07 1.18 1.11 0.92 0.78 0.71 0.67 0.57 0.51 0.43 0.31 0.25 0.25 0.28 0.29 0.28 0.28 0.34 0.47 0.52 0.51
0.85 0.97 0.95 0.82 0.74 0.68 0.61 0.51 0.46 0.42 0.47 0.54 0.50 0.50 0.52 0.60 0.77 1.06 1.30 1.44 1.30 1.03 0.89 0.81 0.73 0.66 0.59 0.44 0.29 0.24 0.26 0.29 0.29 0.29 0.30 0.37 0.43 0.49
0.85 0.96 1.00 0.97 0.90 0.81 0.70 0.55 0.42 0.41 0.42 0.47 0.51 0.53 0.61 0.70 0.81 0.89 1.11 1.30 1.36 1.20 1.00 0.90 0.83 0.82 0.72 0.55 0.41 0.30 0.25 0.26 0.27 0.30 0.34 0.35 0.40 0.47
0.92 1.06 1.17 1.18 1.15 1.05 0.89 0.73 0.62 0.57 0.53 0.53 0.61 0.65 0.70 0.72 0.75 0.79 0.94 1.09 1.10 1.02 0.96 0.94 0.95 0.94 0.92 0.82 0.60 0.39 0.31 0.26 0.26 0.33 0.42 0.42 0.41 0.46
0.70 0.93 1.19 1.25 1.27 1.24 1.13 0.95 0.82 0.74 0.69 0.68 0.71 0.73 0.73 0.77 0.80 0.85 0.93 1.03 1.02 0.93 0.90 0.89 0.98 1.07 1.01 0.92 0.72 0.55 0.42 0.35 0.31 0.38 0.45 0.47 0.43 0.45
0.48 0.68 0.95 1.15 1.23 1.26 1.19 1.02 0.86 0.81 0.84 0.81 0.78 0.78 0.77 0.78 0.85 0.90 0.93 0.99 1.02 0.97 0.89 0.91 0.98 1.05 0.98 0.78 0.63 0.56 0.54 0.47 0.47 0.45 0.46 0.48 0.44 0.40
0.36 0.50 0.74 1.00 1.10 1.16 1.14 1.08 0.98 0.95 0.95 0.91 0.87 0.85 0.83 0.84 0.82 0.85 0.89 0.92 0.95 1.00 0.93 0.88 0.90 0.90 0.87 0.79 0.69 0.60 0.55 0.60 0.63 0.57 0.50 0.52 0.53 0.54
0.43 0.48 0.63 0.84 0.99 1.08 1.09 1.07 1.03 1.02 1.01 1.01 0.98 0.95 0.92 0.94 0.89 0.84 0.88 0.96 1.00 1.04 0.95 0.76 0.74 0.87 1.02 1.12 0.97 0.70 0.59 0.60 0.69 0.73 0.67 0.67 0.64 0.64
0.53 0.54 0.61 0.76 0.92 1.03 1.06 1.04 1.07 1.06 1.08 1.07 1.04 1.01 0.96 0.96 0.97 0.96 0.97 1.01 0.97 0.94 0.94 0.89 0.93 1.05 1.09 1.05 0.90 0.79 0.71 0.68 0.76 0.79 0.74 0.69 0.65 0.58
0.64 0.60 0.64 0.75 0.85 0.97 0.99 0.98 1.01 1.08 1.08 1.07 1.05 1.05 1.02 1.00 1.02 1.04 1.03 1.06 1.06 1.05 1.11 1.15 1.14 1.10 1.03 1.00 0.95 0.90 0.86 0.81 0.82 0.80 0.69 0.65 0.55 0.49

GEFSNE_prec_meanprecacc_144.txt.gz
Total_Precipitation_Accumulation
0.45 0.55 0.54 0.48 0.48 0.47 0.51 0.62 0.71 0.64 0.64 0.71 0.81 0.90 1.01 1.04 1.05 0.96 0.81 0.77 0.68 0.60 0.54 0.51 0.52 0.56 0.63 0.68 0.72 0.80 0.87 0.91 1.00 1.18 1.43 1.68 1.92 2.15
0.58 0.63 0.66 0.63 0.63 0.61 0.61 0.68 0.82 0.80 0.75 0.74 0.82 0.84 0.86 0.73 0.73 0.72 0.70 0.71 0.62 0.56 0.53 0.50 0.47 0.47 0.49 0.54 0.58 0.59 0.61 0.63 0.63 0.68 0.76 0.87 1.03 1.30
0.62 0.65 0.67 0.74 0.80 0.80 0.83 0.81 0.84 0.94 0.89 0.76 0.86 0.95 0.89 0.72 0.62 0.61 0.60 0.61 0.59 0.58 0.54 0.51 0.49 0.47 0.45 0.43 0.47 0.51 0.50 0.51 0.51 0.50 0.51 0.54 0.53 0.57
0.69 0.77 0.75 0.76 0.83 0.88 0.98 0.97 0.98 1.12 1.09 0.96 0.99 1.07 0.98 0.85 0.72 0.63 0.52 0.50 0.51 0.57 0.55 0.54 0.52 0.49 0.46 0.43 0.41 0.40 0.40 0.39 0.40 0.39 0.39 0.37 0.38 0.38
0.82 0.88 0.89 0.92 0.92 0.95 1.01 1.02 1.07 1.22 1.26 1.18 1.16 1.26 1.28 1.08 0.88 0.70 0.57 0.58 0.50 0.53 0.56 0.56 0.54 0.51 0.47 0.46 0.46 0.42 0.37 0.34 0.32 0.31 0.32 0.33 0.33 0.33
0.91 0.91 0.90 0.97 1.03 1.08 1.14 1.24 1.31 1.39 1.47 1.43 1.43 1.53 1.56 1.42 1.19 0.91 0.80 0.75 0.65 0.55 0.58 0.58 0.56 0.52 0.47 0.43 0.41 0.40 0.39 0.37 0.34 0.30 0.27 0.26 0.26 0.26
0.84 0.89 0.89 0.93 0.99 1.08 1.12 1.25 1.41 1.57 1.73 1.79 1.79 1.92 1.86 1.68 1.43 1.10 0.96 0.86 0.77 0.67 0.62 0.55 0.52 0.48 0.45 0.43 0.40 0.39 0.37 0.35 0.34 0.33 0.30 0.26 0.25 0.24
0.98 1.02 0.99 0.94 0.93 0.97 1.04 1.14 1.28 1.46 1.67 1.86 1.96 2.03 2.05 1.89 1.67 1.38 1.04 0.82 0.73 0.68 0.68 0.61 0.53 0.50 0.44 0.39 0.42 0.39 0.36 0.33 0.31 0.29 0.30 0.31 0.30 0.26
1.01 1.03 0.94 0.85 0.89 0.86 0.89 0.93 0.98 1.07 1.19 1.39 1.58 1.66 1.81 1.90 1.75 1.44 1.16 0.95 0.78 0.72 0.72 0.62 0.58 0.54 0.47 0.43 0.48 0.40 0.36 0.34 0.31 0.28 0.28 0.28 0.30 0.30
0.93 0.95 0.94 0.86 0.82 0.84 0.84 0.80 0.73 0.73 0.78 0.86 1.00 1.22 1.42 1.63 1.69 1.58 1.47 1.21 0.94 0.77 0.74 0.66 0.55 0.51 0.49 0.47 0.49 0.45 0.40 0.37 0.35 0.33 0.31 0.29 0.29 0.28
0.98 0.97 0.96 0.86 0.83 0.72 0.72 0.70 0.67 0.65 0.64 0.69 0.78 0.96 1.19 1.36 1.54 1.53 1.43 1.30 1.08 0.83 0.71 0.66 0.55 0.50 0.47 0.42 0.41 0.43 0.41 0.41 0.40 0.38 0.36 0.35 0.34 0.33
1.02 1.01 0.97 0.85 0.81 0.71 0.73 0.75 0.70 0.64 0.64 0.63 0.66 0.74 0.83 1.06 1.28 1.30 1.23 1.18 1.05 0.84 0.65 0.59 0.51 0.49 0.49 0.38 0.32 0.33 0.34 0.40 0.43 0.42 0.41 0.39 0.38 0.31
0.97 0.95 0.96 0.90 0.75 0.63 0.59 0.61 0.62 0.62 0.67 0.69 0.68 0.72 0.81 0.92 1.10 1.18 1.17 1.06 0.94 0.78 0.60 0.57 0.52 0.47 0.43 0.35 0.29 0.27 0.27 0.27 0.30 0.36 0.42 0.46 0.45 0.35
0.93 0.94 0.96 0.89 0.74 0.62 0.53 0.51 0.52 0.52 0.60 0.66 0.67 0.67 0.72 0.79 0.94 1.15 1.25 1.16 0.97 0.82 0.74 0.69 0.59 0.53 0.44 0.33 0.27 0.26 0.29 0.30 0.28 0.28 0.34 0.48 0.52 0.51
0.89 1.04 1.02 0.88 0.80 0.74 0.67 0.58 0.53 0.49 0.54 0.61 0.58 0.57 0.59 0.66 0.81 1.10 1.33 1.47 1.32 1.04 0.90 0.82 0.74 0.66 0.60 0.44 0.30 0.24 0.26 0.29 0.29 0.29 0.30 0.37 0.43 0.49
0.89 1.02 1.06 1.03 0.96 0.87 0.76 0.60 0.47 0.46 0.47 0.52 0.56 0.58 0.64 0.73 0.83 0.90 1.12 1.31 1.37 1.21 1.01 0.91 0.83 0.82 0.72 0.55 0.41 0.30 0.25 0.26 0.27 0.30 0.34 0.35 0.40 0.47
0.99 1.14 1.25 1.26 1.23 1.11 0.95 0.78 0.66 0.62 0.57 0.57 0.65 0.68 0.72 0.74 0.76 0.80 0.95 1.09 1.10 1.03 0.96 0.94 0.95 0.94 0.92 0.82 0.60 0.39 0.31 0.26 0.26 0.33 0.42 0.42 0.41 0.46
0.80 1.02 1.28 1.34 1.35 1.32 1.21 1.02 0.87 0.78 0.72 0.70 0.73 0.74 0.74 0.78 0.81 0.86 0.93 1.03 1.02 0.93 0.90 0.89 0.98 1.07 1.01 0.92 0.72 0.55 0.42 0.35 0.31 0.38 0.45 0.47 0.43 0.45
0.55 0.76 1.04 1.24 1.31 1.35 1.27 1.09 0.91 0.85 0.86 0.82 0.80 0.78 0.78 0.78 0.85 0.90 0.93 0.99 1.02 0.97 0.89 0.91 0.98 1.05 0.98 0.78 0.63 0.56 0.54 0.48 0.47 0.46 0.46 0.48 0.44 0.41
0.41 0.55 0.80 1.06 1.16 1.21 1.19 1.13 1.01 0.97 0.97 0.93 0.89 0.85 0.84 0.84 0.82 0.85 0.89 0.92 0.95 1.00 0.93 0.88 0.90 0.90 0.87 0.79 0.70 0.61 0.56 0.60 0.63 0.58 0.50 0.52 0.53 0.54
0.48 0.53 0.68 0.89 1.03 1.11 1.12 1.10 1.05 1.03 1.03 1.02 0.98 0.95 0.92 0.94 0.89 0.84 0.88 0.96 1.00 1.04 0.95 0.76 0.74 0.87 1.02 1.12 0.97 0.71 0.60 0.61 0.70 0.74 0.68 0.67 0.65 0.66
0.59 0.60 0.66 0.81 0.95 1.06 1.09 1.06 1.08 1.07 1.08 1.07 1.04 1.01 0.96 0.96 0.97 0.96 0.97 1.01 0.97 0.94 0.94 0.89 0.93 1.05 1.09 1.05 0.90 0.80 0.72 0.69 0.77 0.80 0.76 0.70 0.67 0.60
0.70 0.66 0.68 0.79 0.88 0.99 1.01 0.99 1.02 1.08 1.08 1.07 1.05 1.05 1.02 1.00 1.02 1.04 1.03 1.06 1.06 1.05 1.11 1.15 1.14 1.10 1.03 1.00 0.95 0.90 0.87 0.81 0.82 0.80 0.70 0.65 0.56 0.50

GEFSNE_prec_meanprecacc_150.txt.gz
Total_Precipitation_Accumulation
0.52 0.63 0.62 0.54 0.53 0.51 0.56 0.69 0.79 0.71 0.69 0.76 0.85 0.92 1.04 1.07 1.07 0.99 0.83 0.79 0.70 0.62 0.56 0.53 0.54 0.59 0.65 0.70 0.75 0.81 0.88 0.92 1.01 1.19 1.44 1.68 1.92 2.15
0.65 0.71 0.74 0.70 0.68 0.66 0.66 0.74 0.88 0.88 0.83 0.79 0.86 0.87 0.88 0.75 0.76 0.75 0.73 0.73 0.64 0.57 0.55 0.52 0.49 0.49 0.51 0.56 0.59 0.60 0.62 0.64 0.64 0.69 0.76 0.87 1.04 1.30
0.70 0.71 0.74 0.81 0.86 0.85 0.88 0.87 0.91 1.04 1.00 0.84 0.92 1.00 0.92 0.75 0.66 0.64 0.62 0.64 0.60 0.60 0.56 0.54 0.51 0.49 0.47 0.45 0.50 0.53 0.53 0.53 0.53 0.52 0.52 0.55 0.54 0.58
0.78 0.85 0.82 0.82 0.90 0.94 1.04 1.03 1.05 1.22 1.23 1.08 1.08 1.14 1.04 0.90 0.77 0.67 0.55 0.52 0.53 0.59 0.58 0.57 0.54 0.51 0.48 0.46 0.44 0.44 0.43 0.43 0.44 0.43 0.42 0.41 0.41 0.40
0.91 0.96 0.99 1.04 1.03 1.04 1.09 1.10 1.15 1.31 1.39 1.31 1.28 1.36 1.36 1.15 0.96 0.77 0.64 0.64 0.54 0.57 0.60 0.61 0.59 0.56 0.51 0.50 0.51 0.47 0.42 0.39 0.36 0.36 0.36 0.36 0.36 0.36
1.03 1.03 1.03 1.11 1.18 1.24 1.27 1.36 1.43 1.52 1.60 1.55 1.53 1.63 1.65 1.52 1.30 1.03 0.91 0.84 0.73 0.62 0.65 0.66 0.64 0.60 0.54 0.49 0.46 0.46 0.44 0.41 0.37 0.32 0.30 0.29 0.28 0.28
0.97 1.02 0.99 1.03 1.10 1.23 1.27 1.39 1.55 1.71 1.86 1.91 1.91 2.05 1.99 1.81 1.56 1.22 1.08 0.97 0.86 0.75 0.69 0.61 0.58 0.53 0.50 0.48 0.46 0.44 0.41 0.38 0.37 0.36 0.33 0.29 0.27 0.26
1.12 1.15 1.11 1.06 1.05 1.10 1.19 1.30 1.45 1.62 1.84 2.02 2.11 2.17 2.19 2.02 1.79 1.50 1.16 0.92 0.82 0.75 0.75 0.68 0.61 0.57 0.51 0.46 0.50 0.47 0.43 0.39 0.36 0.34 0.34 0.34 0.31 0.27
1.14 1.16 1.05 0.95 0.99 0.96 1.01 1.06 1.11 1.21 1.32 1.53 1.72 1.80 1.94 2.00 1.85 1.53 1.24 1.03 0.86 0.80 0.80 0.72 0.67 0.64 0.57 0.54 0.59 0.50 0.44 0.42 0.38 0.34 0.33 0.32 0.32 0.32
1.04 1.06 1.05 0.97 0.93 0.95 0.95 0.91 0.85 0.84 0.89 0.95 1.08 1.30 1.51 1.72 1.77 1.65 1.54 1.28 1.02 0.84 0.80 0.74 0.65 0.61 0.58 0.55 0.57 0.52 0.46 0.43 0.41 0.40 0.37 0.35 0.33 0.32
1.10 1.10 1.10 1.01 1.00 0.87 0.85 0.82 0.77 0.74 0.71 0.76 0.84 1.02 1.25 1.42 1.60 1.59 1.48 1.36 1.14 0.90 0.78 0.73 0.63 0.57 0.53 0.48 0.47 0.48 0.45 0.46 0.45 0.43 0.42 0.40 0.39 0.37
1.10 1.11 1.09 0.97 0.97 0.88 0.88 0.89 0.82 0.75 0.73 0.71 0.73 0.81 0.89 1.12 1.34 1.36 1.29 1.24 1.12 0.92 0.72 0.65 0.57 0.55 0.56 0.44 0.36 0.37 0.39 0.44 0.48 0.46 0.45 0.43 0.42 0.35
1.02 1.01 1.04 0.99 0.85 0.75 0.71 0.74 0.75 0.74 0.78 0.78 0.76 0.80 0.88 0.98 1.15 1.23 1.22 1.11 1.00 0.85 0.67 0.63 0.58 0.54 0.50 0.42 0.35 0.32 0.31 0.31 0.34 0.39 0.44 0.48 0.46 0.36
0.99 1.00 1.03 0.98 0.83 0.72 0.63 0.62 0.62 0.61 0.67 0.73 0.74 0.74 0.78 0.85 0.98 1.19 1.29 1.21 1.02 0.87 0.79 0.74 0.64 0.58 0.49 0.38 0.31 0.29 0.31 0.32 0.29 0.29 0.35 0.48 0.53 0.52
0.94 1.09 1.08 0.95 0.86 0.79 0.72 0.63 0.58 0.54 0.60 0.67 0.63 0.62 0.62 0.69 0.84 1.12 1.35 1.48 1.34 1.06 0.92 0.84 0.76 0.68 0.62 0.46 0.31 0.25 0.27 0.29 0.29 0.29 0.30 0.37 0.44 0.50
0.94 1.08 1.12 1.08 1.01 0.92 0.82 0.66 0.53 0.51 0.52 0.57 0.60 0.61 0.67 0.75 0.85 0.92 1.13 1.32 1.38 1.21 1.01 0.91 0.84 0.83 0.73 0.56 0.42 0.30 0.26 0.26 0.27 0.30 0.34 0.36 0.41 0.48
1.03 1.18 1.30 1.32 1.29 1.18 1.01 0.85 0.72 0.67 0.63 0.63 0.70 0.73 0.76 0.77 0.78 0.81 0.95 1.10 1.11 1.03 0.96 0.94 0.95 0.94 0.92 0.82 0.60 0.39 0.32 0.26 0.26 0.34 0.43 0.43 0.42 0.47
0.86 1.09 1.34 1.41 1.42 1.39 1.27 1.09 0.94 0.86 0.80 0.78 0.79 0.79 0.77 0.81 0.83 0.87 0.93 1.03 1.02 0.93 0.90 0.89 0.98 1.07 1.01 0.92 0.72 0.55 0.42 0.35 0.32 0.39 0.46 0.48 0.45 0.46
0.58 0.80 1.10 1.30 1.38 1.41 1.33 1.15 0.97 0.91 0.93 0.87 0.84 0.82 0.81 0.80 0.87 0.91 0.93 0.99 1.02 0.97 0.89 0.91 0.98 1.05 0.98 0.78 0.63 0.56 0.55 0.48 0.48 0.46 0.47 0.49 0.45 0.42
0.44 0.59 0.84 1.11 1.21 1.26 1.24 1.17 1.06 1.01 1.00 0.95 0.91 0.88 0.86 0.85 0.83 0.86 0.89 0.92 0.95 1.00 0.93 0.88 0.90 0.90 0.87 0.79 0.70 0.61 0.56 0.61 0.64 0.58 0.51 0.53 0.54 0.55
0.53 0.58 0.72 0.94 1.10 1.18 1.18 1.15 1.10 1.07 1.06 1.05 1.00 0.97 0.93 0.94 0.89 0.84 0.88 0.96 1.00 1.04 0.95 0.76 0.74 0.87 1.02 1.12 0.97 0.71 0.60 0.61 0.70 0.74 0.68 0.69 0.67 0.67
0.67 0.67 0.73 0.88 1.03 1.14 1.16 1.13 1.14 1.11 1.11 1.09 1.06 1.02 0.97 0.97 0.97 0.96 0.97 1.01 0.97 0.94 0.94 0.89 0.93 1.05 1.09 1.05 0.90 0.80 0.72 0.69 0.77 0.80 0.76 0.70 0.67 0.60
0.81 0.77 0.79 0.89 0.98 1.07 1.08 1.05 1.06 1.11 1.10 1.09 1.06 1.06 1.03 1.00 1.02 1.04 1.03 1.06 1.06 1.05 1.11 1.15 1.14 1.10 1.03 1.00 0.95 0.90 0.87 0.81 0.82 0.80 0.70 0.66 0.56 0.50

GEFSNE_prec_meanprecacc_156.txt.gz
Total_Precipitation_Accumulation
0.60 0.72 0.72 0.61 0.60 0.59 0.65 0.79 0.92 0.84 0.80 0.87 0.93 1.00 1.11 1.15 1.16 1.05 0.90 0.86 0.75 0.64 0.58 0.55 0.56 0.60 0.67 0.72 0.76 0.83 0.90 0.94 1.03 1.21 1.46 1.71 1.95 2.18
0.77 0.84 0.85 0.78 0.76 0.74 0.74 0.82 0.99 1.01 0.94 0.89 0.95 0.95 0.95 0.82 0.83 0.80 0.78 0.79 0.68 0.60 0.57 0.53 0.50 0.50 0.52 0.58 0.61 0.61 0.63 0.64 0.66 0.71 0.79 0.90 1.06 1.33
0.81 0.83 0.85 0.90 0.97 0.96 0.99 0.98 1.02 1.16 1.12 0.94 1.01 1.09 1.01 0.82 0.71 0.69 0.67 0.67 0.63 0.64 0.60 0.57 0.54 0.51 0.48 0.46 0.51 0.55 0.55 0.56 0.55 0.54 0.55 0.58 0.57 0.61
0.87 0.94 0.91 0.92 1.01 1.07 1.17 1.14 1.17 1.34 1.35 1.19 1.17 1.23 1.13 0.98 0.84 0.74 0.61 0.57 0.57 0.65 0.65 0.62 0.58 0.54 0.50 0.48 0.47 0.46 0.47 0.46 0.47 0.47 0.46 0.45 0.45 0.45
1.03 1.07 1.08 1.14 1.13 1.15 1.20 1.19 1.24 1.40 1.48 1.41 1.38 1.46 1.45 1.22 1.05 0.86 0.73 0.74 0.63 0.64 0.67 0.65 0.62 0.59 0.54 0.54 0.54 0.50 0.46 0.43 0.40 0.40 0.40 0.40 0.40 0.39
1.17 1.19 1.18 1.24 1.30 1.34 1.36 1.45 1.53 1.63 1.71 1.66 1.64 1.74 1.75 1.61 1.41 1.12 1.01 0.93 0.82 0.69 0.71 0.70 0.67 0.62 0.56 0.51 0.50 0.49 0.48 0.46 0.43 0.38 0.36 0.34 0.33 0.32
1.11 1.18 1.15 1.18 1.24 1.34 1.37 1.51 1.67 1.84 1.99 2.03 2.03 2.16 2.09 1.91 1.65 1.32 1.19 1.08 0.96 0.83 0.76 0.67 0.62 0.57 0.53 0.52 0.50 0.49 0.47 0.45 0.45 0.44 0.40 0.36 0.33 0.32
1.21 1.25 1.20 1.15 1.14 1.20 1.28 1.40 1.54 1.73 1.96 2.15 2.24 2.29 2.30 2.13 1.89 1.60 1.26 1.02 0.91 0.83 0.82 0.75 0.66 0.61 0.54 0.50 0.55 0.52 0.49 0.46 0.44 0.43 0.42 0.41 0.38 0.33
1.22 1.25 1.13 1.02 1.06 1.03 1.09 1.14 1.19 1.29 1.43 1.64 1.84 1.90 2.04 2.09 1.93 1.61 1.32 1.10 0.92 0.85 0.85 0.78 0.73 0.70 0.63 0.60 0.66 0.56 0.50 0.48 0.45 0.43 0.43 0.42 0.43 0.42
1.10 1.13 1.13 1.05 1.01 1.04 1.03 1.00 0.93 0.92 0.97 1.02 1.16 1.38 1.57 1.79 1.84 1.72 1.61 1.35 1.07 0.87 0.83 0.77 0.68 0.64 0.62 0.60 0.63 0.58 0.53 0.50 0.48 0.47 0.44 0.42 0.41 0.40
1.12 1.13 1.15 1.07 1.08 0.97 0.95 0.94 0.88 0.84 0.81 0.84 0.91 1.08 1.30 1.47 1.65 1.64 1.54 1.41 1.19 0.94 0.81 0.76 0.66 0.61 0.56 0.51 0.50 0.52 0.50 0.50 0.50 0.48 0.46 0.44 0.43 0.41
1.12 1.13 1.12 1.02 1.05 0.97 0.98 1.02 0.95 0.86 0.83 0.80 0.82 0.89 0.96 1.19 1.40 1.41 1.34 1.30 1.18 0.97 0.76 0.70 0.62 0.59 0.60 0.48 0.39 0.40 0.42 0.48 0.51 0.50 0.48 0.46 0.45 0.37
1.04 1.02 1.06 1.03 0.90 0.82 0.80 0.85 0.89 0.87 0.89 0.87 0.85 0.88 0.94 1.03 1.19 1.27 1.26 1.16 1.05 0.89 0.71 0.67 0.63 0.58 0.55 0.47 0.38 0.35 0.34 0.33 0.36 0.41 0.46 0.49 0.47 0.37
1.02 1.03 1.06 1.01 0.87 0.76 0.68 0.68 0.69 0.67 0.74 0.81 0.83 0.81 0.84 0.89 1.02 1.22 1.33 1.25 1.05 0.90 0.82 0.76 0.66 0.61 0.53 0.41 0.34 0.31 0.33 0.33 0.31 0.30 0.35 0.49 0.53 0.52
0.95 1.11 1.11 0.98 0.90 0.83 0.76 0.68 0.62 0.58 0.63 0.71 0.68 0.67 0.67 0.73 0.88 1.16 1.38 1.51 1.36 1.08 0.94 0.86 0.79 0.71 0.64 0.48 0.33 0.26 0.28 0.30 0.30 0.30 0.31 0.38 0.44 0.51
0.95 1.10 1.15 1.12 1.05 0.97 0.86 0.70 0.55 0.54 0.56 0.61 0.65 0.66 0.72 0.79 0.88 0.95 1.16 1.35 1.41 1.24 1.04 0.94 0.87 0.85 0.74 0.57 0.43 0.31 0.26 0.27 0.28 0.31 0.35 0.36 0.42 0.49
1.05 1.20 1.33 1.34 1.32 1.21 1.05 0.88 0.75 0.70 0.66 0.66 0.74 0.76 0.79 0.80 0.82 0.84 0.98 1.13 1.14 1.06 0.99 0.97 0.97 0.95 0.92 0.82 0.60 0.40 0.32 0.27 0.27 0.34 0.43 0.44 0.43 0.48
0.88 1.10 1.36 1.43 1.44 1.41 1.29 1.11 0.96 0.88 0.82 0.80 0.81 0.82 0.81 0.84 0.86 0.90 0.97 1.07 1.06 0.97 0.93 0.91 0.99 1.07 1.02 0.92 0.73 0.55 0.42 0.35 0.32 0.39 0.47 0.49 0.46 0.47
0.60 0.81 1.11 1.32 1.40 1.43 1.35 1.17 1.00 0.94 0.96 0.91 0.87 0.85 0.84 0.84 0.90 0.94 0.96 1.02 1.05 0.99 0.91 0.92 0.98 1.05 0.99 0.78 0.63 0.56 0.55 0.48 0.48 0.46 0.47 0.50 0.46 0.42
0.47 0.62 0.87 1.14 1.23 1.29 1.27 1.20 1.09 1.05 1.04 0.99 0.95 0.91 0.89 0.89 0.87 0.89 0.92 0.95 0.98 1.02 0.94 0.89 0.90 0.91 0.87 0.79 0.70 0.61 0.56 0.61 0.64 0.59 0.52 0.54 0.54 0.55
0.57 0.62 0.77 1.00 1.15 1.24 1.25 1.22 1.17 1.13 1.12 1.11 1.05 1.01 0.96 0.97 0.92 0.87 0.90 0.97 1.01 1.05 0.95 0.76 0.74 0.87 1.02 1.12 0.97 0.71 0.60 0.61 0.70 0.74 0.68 0.69 0.67 0.68
0.72 0.73 0.79 0.95 1.11 1.23 1.26 1.23 1.24 1.22 1.21 1.17 1.12 1.06 1.00 1.00 1.00 0.98 0.98 1.02 0.98 0.95 0.94 0.89 0.93 1.05 1.09 1.05 0.90 0.80 0.72 0.69 0.77 0.81 0.76 0.70 0.67 0.60
0.86 0.83 0.86 0.97 1.07 1.17 1.19 1.15 1.16 1.21 1.20 1.16 1.12 1.10 1.06 1.02 1.03 1.06 1.04 1.07 1.06 1.05 1.11 1.15 1.14 1.10 1.03 1.00 0.95 0.90 0.87 0.81 0.82 0.80 0.70 0.66 0.56 0.50

GEFSNE_prec_meanprecacc_162.txt.gz
Total_Precipitation_Accumulation
0.68 0.80 0.79 0.68 0.66 0.64 0.72 0.87 0.99 0.89 0.84 0.91 0.98 1.05 1.20 1.26 1.29 1.16 1.00 0.96 0.84 0.72 0.64 0.61 0.61 0.65 0.70 0.74 0.78 0.85 0.91 0.95 1.04 1.23 1.49 1.75 1.99 2.23
0.84 0.90 0.91 0.83 0.81 0.78 0.79 0.89 1.07 1.09 1.01 0.95 1.01 1.01 1.01 0.89 0.94 0.89 0.87 0.88 0.77 0.69 0.64 0.60 0.56 0.56 0.57 0.62 0.65 0.64 0.66 0.66 0.67 0.72 0.80 0.92 1.09 1.36
0.87 0.89 0.90 0.96 1.02 1.02 1.06 1.07 1.12 1.27 1.22 1.02 1.07 1.16 1.09 0.91 0.82 0.80 0.77 0.74 0.69 0.70 0.67 0.64 0.61 0.57 0.54 0.52 0.55 0.58 0.58 0.58 0.58 0.56 0.56 0.59 0.59 0.63
0.93 1.02 0.99 1.00 1.09 1.14 1.26 1.25 1.27 1.45 1.45 1.28 1.25 1.32 1.24 1.10 0.97 0.86 0.71 0.65 0.64 0.72 0.71 0.67 0.62 0.57 0.54 0.52 0.50 0.49 0.50 0.49 0.50 0.49 0.48 0.46 0.47 0.47
1.10 1.15 1.14 1.23 1.22 1.25 1.31 1.29 1.34 1.50 1.60 1.51 1.47 1.56 1.56 1.32 1.14 0.95 0.83 0.82 0.71 0.72 0.74 0.71 0.67 0.62 0.57 0.57 0.57 0.53 0.48 0.46 0.43 0.44 0.46 0.45 0.44 0.44
1.22 1.24 1.25 1.33 1.40 1.45 1.47 1.55 1.63 1.75 1.85 1.79 1.77 1.87 1.87 1.71 1.49 1.19 1.10 1.02 0.89 0.75 0.78 0.76 0.72 0.67 0.60 0.55 0.53 0.53 0.52 0.50 0.47 0.43 0.42 0.41 0.42 0.40
1.17 1.23 1.22 1.26 1.33 1.44 1.47 1.61 1.79 1.96 2.11 2.16 2.16 2.31 2.23 2.03 1.76 1.41 1.29 1.18 1.04 0.89 0.81 0.71 0.66 0.60 0.57 0.55 0.53 0.52 0.50 0.49 0.48 0.47 0.44 0.40 0.38 0.37
1.27 1.31 1.27 1.21 1.18 1.24 1.34 1.46 1.61 1.79 2.03 2.24 2.34 2.41 2.43 2.26 2.03 1.74 1.39 1.12 0.99 0.89 0.87 0.79 0.69 0.64 0.57 0.52 0.58 0.55 0.52 0.49 0.48 0.47 0.46 0.44 0.41 0.36
1.25 1.28 1.17 1.06 1.10 1.06 1.14 1.20 1.24 1.35 1.49 1.71 1.93 2.00 2.15 2.20 2.05 1.73 1.43 1.18 0.99 0.92 0.91 0.83 0.77 0.72 0.65 0.63 0.69 0.59 0.53 0.51 0.48 0.46 0.47 0.47 0.48 0.46
1.11 1.15 1.15 1.06 1.04 1.07 1.08 1.04 0.97 0.98 1.04 1.09 1.23 1.46 1.67 1.89 1.94 1.81 1.69 1.43 1.15 0.95 0.89 0.84 0.74 0.69 0.66 0.63 0.68 0.62 0.57 0.53 0.51 0.49 0.47 0.46 0.45 0.45
1.15 1.15 1.16 1.08 1.10 1.00 0.98 0.97 0.92 0.88 0.88 0.93 1.01 1.18 1.40 1.57 1.75 1.74 1.64 1.51 1.28 1.02 0.88 0.83 0.73 0.67 0.63 0.56 0.56 0.57 0.54 0.54 0.53 0.51 0.49 0.47 0.45 0.44
1.14 1.14 1.13 1.04 1.07 0.99 1.00 1.04 0.97 0.89 0.88 0.86 0.89 0.97 1.04 1.27 1.50 1.51 1.44 1.40 1.28 1.07 0.85 0.79 0.72 0.69 0.70 0.55 0.44 0.44 0.45 0.50 0.54 0.52 0.50 0.48 0.46 0.39
1.05 1.03 1.07 1.04 0.92 0.84 0.81 0.86 0.89 0.89 0.91 0.90 0.88 0.92 0.99 1.08 1.25 1.34 1.35 1.27 1.17 1.00 0.82 0.78 0.75 0.69 0.63 0.54 0.44 0.40 0.37 0.36 0.38 0.42 0.47 0.50 0.48 0.38
1.03 1.03 1.07 1.03 0.89 0.79 0.69 0.69 0.71 0.68 0.75 0.83 0.85 0.85 0.88 0.93 1.07 1.28 1.40 1.34 1.15 1.00 0.91 0.85 0.76 0.69 0.60 0.47 0.40 0.36 0.36 0.35 0.32 0.31 0.36 0.50 0.54 0.53
0.95 1.12 1.11 0.99 0.91 0.85 0.78 0.69 0.63 0.59 0.65 0.73 0.71 0.72 0.73 0.79 0.93 1.21 1.43 1.56 1.42 1.14 1.00 0.92 0.84 0.77 0.69 0.53 0.38 0.31 0.32 0.33 0.32 0.31 0.32 0.38 0.45 0.51
0.97 1.11 1.17 1.14 1.07 0.98 0.87 0.70 0.56 0.55 0.58 0.63 0.68 0.70 0.77 0.85 0.94 1.00 1.22 1.41 1.46 1.29 1.07 0.98 0.91 0.90 0.80 0.62 0.48 0.35 0.30 0.30 0.31 0.33 0.37 0.38 0.42 0.50
1.09 1.23 1.36 1.37 1.34 1.23 1.06 0.89 0.76 0.72 0.68 0.68 0.77 0.80 0.82 0.84 0.85 0.87 1.02 1.16 1.17 1.10 1.03 1.02 1.02 1.01 0.99 0.88 0.66 0.44 0.36 0.30 0.29 0.37 0.45 0.45 0.44 0.48
0.90 1.11 1.37 1.45 1.46 1.42 1.31 1.13 0.98 0.90 0.85 0.82 0.84 0.85 0.84 0.87 0.89 0.93 1.00 1.10 1.10 1.00 0.97 0.95 1.04 1.12 1.07 0.97 0.76 0.58 0.45 0.37 0.34 0.41 0.48 0.50 0.46 0.47
0.61 0.83 1.12 1.33 1.42 1.45 1.37 1.20 1.03 0.98 1.00 0.94 0.90 0.88 0.87 0.87 0.93 0.97 0.99 1.04 1.07 1.01 0.93 0.94 1.01 1.07 1.01 0.80 0.65 0.58 0.56 0.50 0.50 0.48 0.48 0.50 0.46 0.42
0.47 0.63 0.89 1.16 1.26 1.32 1.31 1.25 1.14 1.09 1.08 1.03 0.98 0.95 0.93 0.93 0.91 0.93 0.95 0.97 1.00 1.04 0.96 0.91 0.93 0.92 0.89 0.80 0.71 0.62 0.57 0.62 0.65 0.60 0.52 0.54 0.55 0.55
0.58 0.64 0.80 1.02 1.18 1.28 1.29 1.27 1.21 1.18 1.17 1.16 1.11 1.06 1.02 1.03 0.97 0.90 0.93 1.00 1.03 1.07 0.97 0.78 0.76 0.88 1.03 1.12 0.98 0.71 0.60 0.61 0.71 0.75 0.69 0.69 0.67 0.68
0.74 0.75 0.82 0.97 1.13 1.26 1.29 1.26 1.28 1.26 1.26 1.22 1.18 1.13 1.06 1.06 1.06 1.03 1.03 1.06 1.01 0.97 0.96 0.90 0.94 1.05 1.09 1.05 0.90 0.80 0.72 0.69 0.77 0.81 0.76 0.70 0.68 0.61
0.89 0.85 0.88 0.99 1.09 1.20 1.21 1.19 1.20 1.25 1.24 1.21 1.17 1.16 1.11 1.07 1.08 1.09 1.07 1.10 1.08 1.06 1.12 1.16 1.14 1.10 1.03 1.00 0.95 0.90 0.87 0.81 0.82 0.80 0.70 0.66 0.56 0.50

GEFSNE_prec_meanprecacc_168.txt.gz
Total_Precipitation_Accumulation
0.74 0.88 0.87 0.75 0.75 0.72 0.79 0.93 1.04 0.92 0.85 0.92 1.00 1.08 1.24 1.31 1.37 1.25 1.08 1.04 0.90 0.77 0.70 0.67 0.68 0.73 0.78 0.81 0.85 0.92 0.99 1.03 1.12 1.30 1.56 1.81 2.06 2.30
0.88 0.95 0.96 0.91 0.90 0.86 0.87 0.96 1.13 1.14 1.04 0.97 1.04 1.06 1.10 1.01 1.09 1.03 1.00 1.02 0.88 0.79 0.74 0.70 0.65 0.65 0.66 0.72 0.74 0.73 0.74 0.74 0.74 0.79 0.86 0.97 1.13 1.40
0.90 0.92 0.93 1.00 1.06 1.08 1.13 1.14 1.18 1.32 1.27 1.06 1.12 1.25 1.22 1.06 0.97 0.94 0.91 0.88 0.82 0.83 0.78 0.74 0.70 0.65 0.61 0.59 0.62 0.65 0.63 0.63 0.62 0.61 0.60 0.62 0.61 0.65
0.95 1.04 1.00 1.02 1.11 1.18 1.31 1.31 1.33 1.52 1.52 1.33 1.32 1.39 1.31 1.19 1.08 0.99 0.87 0.80 0.77 0.84 0.80 0.75 0.69 0.63 0.61 0.58 0.55 0.54 0.54 0.54 0.54 0.53 0.52 0.50 0.50 0.50
1.13 1.18 1.17 1.27 1.26 1.29 1.36 1.34 1.41 1.59 1.69 1.59 1.54 1.63 1.63 1.40 1.24 1.07 0.96 0.95 0.83 0.83 0.83 0.78 0.73 0.68 0.63 0.62 0.61 0.57 0.52 0.50 0.47 0.49 0.51 0.52 0.52 0.50
1.26 1.28 1.29 1.37 1.44 1.49 1.51 1.60 1.70 1.83 1.94 1.88 1.85 1.94 1.94 1.79 1.57 1.29 1.20 1.13 1.01 0.88 0.90 0.85 0.80 0.74 0.67 0.61 0.57 0.57 0.56 0.54 0.51 0.48 0.48 0.49 0.50 0.51
1.21 1.27 1.25 1.29 1.36 1.49 1.52 1.66 1.83 2.01 2.16 2.21 2.22 2.37 2.30 2.11 1.84 1.51 1.42 1.32 1.18 1.02 0.93 0.82 0.76 0.68 0.64 0.62 0.60 0.58 0.56 0.53 0.52 0.51 0.48 0.45 0.42 0.41
1.32 1.36 1.31 1.25 1.24 1.29 1.38 1.50 1.64 1.82 2.05 2.26 2.37 2.44 2.47 2.31 2.10 1.83 1.50 1.25 1.13 1.02 0.98 0.90 0.78 0.72 0.64 0.59 0.65 0.61 0.57 0.54 0.53 0.51 0.49 0.47 0.43 0.39
1.31 1.32 1.20 1.09 1.13 1.08 1.15 1.21 1.25 1.37 1.50 1.73 1.95 2.03 2.18 2.25 2.12 1.82 1.53 1.30 1.11 1.04 1.03 0.95 0.87 0.82 0.73 0.70 0.76 0.65 0.58 0.56 0.52 0.50 0.50 0.50 0.50 0.48
1.16 1.19 1.18 1.08 1.05 1.09 1.09 1.04 0.98 0.99 1.06 1.12 1.27 1.50 1.70 1.93 2.00 1.89 1.79 1.53 1.25 1.04 0.99 0.94 0.84 0.79 0.75 0.72 0.77 0.70 0.63 0.59 0.56 0.53 0.51 0.49 0.48 0.47
1.18 1.18 1.19 1.11 1.12 1.02 1.00 0.98 0.93 0.89 0.89 0.95 1.03 1.21 1.44 1.61 1.80 1.81 1.73 1.62 1.38 1.11 0.96 0.92 0.83 0.80 0.77 0.70 0.69 0.69 0.62 0.61 0.58 0.55 0.52 0.50 0.48 0.46
1.17 1.18 1.19 1.09 1.11 1.03 1.04 1.07 0.99 0.91 0.89 0.87 0.90 0.98 1.06 1.30 1.54 1.55 1.49 1.47 1.35 1.15 0.93 0.89 0.83 0.83 0.85 0.70 0.58 0.55 0.54 0.59 0.62 0.58 0.55 0.52 0.50 0.42
1.07 1.05 1.09 1.07 0.95 0.87 0.84 0.88 0.91 0.90 0.92 0.91 0.89 0.92 0.99 1.09 1.28 1.37 1.39 1.32 1.23 1.08 0.89 0.89 0.87 0.83 0.78 0.68 0.58 0.52 0.48 0.47 0.48 0.51 0.54 0.55 0.52 0.42
1.04 1.04 1.07 1.04 0.90 0.80 0.70 0.70 0.72 0.69 0.76 0.83 0.86 0.85 0.88 0.94 1.08 1.30 1.43 1.39 1.22 1.07 1.00 0.96 0.87 0.81 0.73 0.62 0.55 0.50 0.49 0.46 0.41 0.39 0.42 0.55 0.59 0.58
0.96 1.13 1.12 0.99 0.92 0.85 0.78 0.70 0.64 0.59 0.66 0.74 0.72 0.73 0.74 0.81 0.95 1.23 1.47 1.60 1.46 1.19 1.06 1.00 0.94 0.87 0.81 0.65 0.50 0.43 0.43 0.42 0.39 0.38 0.39 0.45 0.51 0.56
0.98 1.13 1.18 1.15 1.08 1.00 0.89 0.72 0.58 0.56 0.59 0.64 0.69 0.71 0.79 0.87 0.97 1.05 1.27 1.47 1.53 1.36 1.14 1.05 0.98 0.98 0.89 0.71 0.58 0.46 0.38 0.37 0.36 0.39 0.43 0.44 0.47 0.53
1.11 1.25 1.37 1.39 1.35 1.24 1.07 0.91 0.78 0.73 0.70 0.70 0.79 0.81 0.85 0.87 0.89 0.92 1.07 1.23 1.25 1.17 1.10 1.08 1.09 1.07 1.05 0.95 0.73 0.51 0.42 0.36 0.35 0.41 0.50 0.49 0.48 0.51
0.91 1.12 1.38 1.45 1.46 1.43 1.32 1.14 1.00 0.91 0.86 0.85 0.87 0.88 0.87 0.91 0.94 0.98 1.05 1.16 1.16 1.07 1.03 1.00 1.08 1.16 1.10 1.01 0.80 0.61 0.48 0.41 0.37 0.44 0.50 0.52 0.48 0.49
0.61 0.83 1.13 1.34 1.42 1.45 1.38 1.20 1.04 0.99 1.01 0.96 0.93 0.91 0.90 0.91 0.97 1.01 1.03 1.09 1.13 1.07 0.99 1.00 1.05 1.11 1.04 0.83 0.67 0.59 0.57 0.51 0.52 0.50 0.50 0.52 0.48 0.44
0.48 0.64 0.89 1.16 1.27 1.33 1.32 1.26 1.15 1.10 1.10 1.05 1.01 0.98 0.96 0.96 0.95 0.98 1.01 1.04 1.06 1.10 1.02 0.96 0.97 0.96 0.92 0.83 0.74 0.65 0.59 0.64 0.67 0.62 0.54 0.56 0.56 0.57
0.60 0.65 0.81 1.04 1.20 1.29 1.31 1.29 1.23 1.20 1.19 1.18 1.14 1.10 1.06 1.08 1.03 0.96 0.99 1.07 1.10 1.12 1.02 0.83 0.79 0.91 1.06 1.15 1.01 0.74 0.63 0.63 0.72 0.76 0.71 0.71 0.69 0.69
0.77 0.79 0.85 1.00 1.16 1.28 1.31 1.29 1.31 1.30 1.29 1.26 1.22 1.17 1.11 1.11 1.11 1.08 1.09 1.11 1.06 1.02 1.01 0.96 0.99 1.09 1.12 1.08 0.93 0.82 0.74 0.70 0.77 0.81 0.77 0.71 0.68 0.61
0.93 0.90 0.93 1.04 1.14 1.25 1.27 1.24 1.25 1.30 1.28 1.25 1.22 1.20 1.16 1.12 1.12 1.14 1.12 1.14 1.12 1.10 1.16 1.19 1.17 1.12 1.05 1.02 0.96 0.92 0.88 0.82 0.82 0.81 0.70 0.66 0.56 0.50

GEFSNE_prec_meanprecacc_174.txt.gz
Total_Precipitation_Accumulation
0.81 0.96 0.95 0.84 0.84 0.81 0.87 1.03 1.14 1.01 0.93 0.97 1.04 1.10 1.27 1.34 1.42 1.31 1.15 1.13 0.99 0.85 0.77 0.74 0.76 0.80 0.86 0.88 0.92 0.99 1.06 1.11 1.21 1.40 1.67 1.96 2.23 2.48
0.95 1.03 1.05 0.98 0.98 0.94 0.95 1.05 1.23 1.24 1.12 1.02 1.09 1.10 1.14 1.05 1.15 1.09 1.07 1.10 0.96 0.87 0.82 0.78 0.74 0.73 0.73 0.77 0.79 0.79 0.80 0.81 0.82 0.87 0.95 1.07 1.23 1.50
0.95 0.97 0.99 1.07 1.14 1.15 1.20 1.21 1.25 1.39 1.33 1.11 1.17 1.28 1.26 1.11 1.03 1.01 0.99 0.95 0.90 0.92 0.86 0.82 0.77 0.72 0.66 0.64 0.68 0.71 0.70 0.70 0.68 0.66 0.66 0.68 0.67 0.70
0.99 1.09 1.05 1.08 1.18 1.24 1.38 1.37 1.40 1.59 1.60 1.41 1.37 1.43 1.36 1.25 1.15 1.07 0.94 0.88 0.85 0.93 0.87 0.82 0.75 0.70 0.67 0.65 0.62 0.62 0.62 0.60 0.60 0.58 0.56 0.54 0.54 0.54
1.17 1.22 1.23 1.34 1.33 1.36 1.42 1.41 1.47 1.66 1.78 1.66 1.60 1.69 1.68 1.46 1.31 1.14 1.02 1.02 0.89 0.89 0.90 0.86 0.80 0.76 0.70 0.69 0.70 0.65 0.60 0.56 0.53 0.54 0.57 0.58 0.58 0.58
1.31 1.33 1.35 1.43 1.49 1.55 1.56 1.66 1.76 1.91 2.02 1.95 1.90 1.99 1.99 1.85 1.63 1.34 1.25 1.18 1.07 0.95 0.98 0.95 0.91 0.84 0.77 0.70 0.67 0.66 0.64 0.62 0.59 0.55 0.54 0.55 0.58 0.59
1.27 1.32 1.29 1.34 1.41 1.54 1.56 1.70 1.90 2.07 2.22 2.26 2.26 2.41 2.34 2.16 1.89 1.55 1.45 1.36 1.22 1.07 0.98 0.89 0.85 0.79 0.76 0.75 0.72 0.71 0.68 0.66 0.64 0.61 0.57 0.52 0.49 0.48
1.39 1.41 1.35 1.30 1.29 1.35 1.43 1.54 1.69 1.87 2.10 2.30 2.40 2.48 2.50 2.34 2.13 1.86 1.53 1.29 1.18 1.07 1.05 0.98 0.88 0.83 0.75 0.70 0.78 0.74 0.69 0.66 0.63 0.61 0.59 0.57 0.53 0.48
1.39 1.40 1.26 1.13 1.16 1.11 1.19 1.24 1.28 1.38 1.52 1.75 1.97 2.05 2.20 2.28 2.15 1.86 1.58 1.35 1.17 1.12 1.11 1.03 0.95 0.89 0.81 0.78 0.86 0.75 0.68 0.66 0.62 0.60 0.61 0.61 0.61 0.58
1.20 1.23 1.21 1.12 1.08 1.11 1.12 1.07 1.00 1.00 1.07 1.13 1.28 1.52 1.72 1.96 2.03 1.93 1.83 1.57 1.29 1.09 1.03 0.99 0.88 0.83 0.79 0.77 0.84 0.78 0.71 0.68 0.65 0.63 0.61 0.59 0.58 0.57
1.21 1.21 1.21 1.13 1.15 1.05 1.03 1.01 0.95 0.91 0.90 0.96 1.04 1.22 1.46 1.63 1.83 1.84 1.76 1.65 1.42 1.13 0.99 0.95 0.86 0.82 0.81 0.75 0.74 0.75 0.69 0.69 0.68 0.65 0.62 0.60 0.57 0.56
1.20 1.22 1.22 1.12 1.15 1.07 1.07 1.11 1.03 0.94 0.92 0.89 0.92 1.00 1.08 1.32 1.57 1.58 1.52 1.51 1.39 1.18 0.95 0.91 0.86 0.86 0.89 0.74 0.62 0.61 0.62 0.68 0.71 0.68 0.65 0.61 0.59 0.49
1.15 1.12 1.16 1.14 1.00 0.92 0.88 0.91 0.95 0.95 0.97 0.95 0.94 0.98 1.05 1.14 1.32 1.40 1.42 1.36 1.28 1.11 0.92 0.92 0.91 0.88 0.84 0.75 0.66 0.60 0.56 0.55 0.57 0.60 0.64 0.65 0.62 0.50
1.08 1.08 1.11 1.07 0.92 0.82 0.73 0.72 0.74 0.72 0.80 0.88 0.91 0.91 0.94 1.00 1.13 1.34 1.47 1.42 1.25 1.10 1.03 0.99 0.91 0.86 0.80 0.70 0.63 0.59 0.57 0.54 0.49 0.47 0.50 0.64 0.69 0.67
0.98 1.15 1.14 1.01 0.93 0.87 0.80 0.71 0.65 0.60 0.67 0.76 0.74 0.75 0.78 0.84 0.99 1.27 1.51 1.65 1.51 1.23 1.10 1.04 0.99 0.93 0.87 0.72 0.57 0.50 0.50 0.49 0.46 0.44 0.45 0.52 0.58 0.63
0.99 1.13 1.19 1.15 1.09 1.00 0.90 0.73 0.58 0.57 0.60 0.66 0.70 0.73 0.81 0.89 0.99 1.07 1.30 1.51 1.58 1.40 1.18 1.08 1.02 1.02 0.93 0.76 0.64 0.52 0.45 0.43 0.42 0.44 0.48 0.50 0.53 0.59
1.11 1.25 1.37 1.39 1.36 1.24 1.08 0.91 0.78 0.74 0.71 0.71 0.80 0.83 0.86 0.88 0.91 0.94 1.10 1.26 1.27 1.20 1.13 1.12 1.13 1.11 1.10 1.00 0.79 0.57 0.48 0.40 0.38 0.45 0.53 0.53 0.51 0.54
0.91 1.12 1.38 1.46 1.47 1.44 1.33 1.15 1.00 0.92 0.88 0.86 0.88 0.89 0.89 0.92 0.95 1.00 1.07 1.17 1.18 1.09 1.05 1.03 1.12 1.20 1.15 1.06 0.85 0.65 0.52 0.44 0.40 0.46 0.52 0.54 0.50 0.51
0.61 0.83 1.13 1.34 1.42 1.46 1.39 1.21 1.04 1.00 1.02 0.98 0.94 0.93 0.92 0.92 0.99 1.03 1.05 1.11 1.16 1.10 1.03 1.03 1.09 1.15 1.08 0.88 0.72 0.63 0.60 0.54 0.54 0.52 0.52 0.54 0.49 0.46
0.49 0.65 0.90 1.18 1.28 1.35 1.34 1.28 1.17 1.12 1.11 1.06 1.02 1.00 0.98 0.98 0.97 1.00 1.04 1.07 1.10 1.15 1.07 1.02 1.02 1.01 0.96 0.87 0.78 0.69 0.63 0.66 0.69 0.64 0.56 0.58 0.58 0.58
0.62 0.67 0.83 1.06 1.23 1.32 1.34 1.32 1.26 1.23 1.21 1.20 1.16 1.12 1.09 1.11 1.07 1.01 1.04 1.13 1.16 1.20 1.10 0.90 0.87 0.99 1.11 1.20 1.05 0.79 0.67 0.66 0.74 0.78 0.72 0.73 0.70 0.70
0.79 0.81 0.87 1.02 1.18 1.30 1.34 1.32 1.34 1.33 1.33 1.31 1.27 1.22 1.16 1.17 1.17 1.14 1.14 1.18 1.13 1.10 1.10 1.05 1.08 1.17 1.19 1.15 0.99 0.87 0.79 0.74 0.80 0.83 0.79 0.73 0.70 0.62
0.95 0.91 0.94 1.05 1.16 1.27 1.29 1.27 1.28 1.34 1.33 1.30 1.27 1.25 1.20 1.17 1.17 1.19 1.17 1.20 1.18 1.16 1.21 1.25 1.24 1.19 1.12 1.09 1.02 0.97 0.92 0.85 0.85 0.82 0.71 0.67 0.57 0.51

GEFSNE_prec_meanprecacc_180.txt.gz
Total_Precipitation_Accumulation
0.89 1.05 1.03 0.93 0.94 0.91 1.00 1.15 1.24 1.09 1.01 1.04 1.09 1.15 1.34 1.40 1.48 1.37 1.21 1.21 1.05 0.89 0.82 0.79 0.81 0.86 0.91 0.92 0.96 1.03 1.10 1.14 1.25 1.45 1.75 2.06 2.35 2.61
1.02 1.12 1.13 1.07 1.08 1.04 1.05 1.15 1.33 1.32 1.19 1.07 1.15 1.16 1.20 1.10 1.20 1.13 1.12 1.17 1.02 0.93 0.89 0.85 0.81 0.80 0.79 0.82 0.83 0.82 0.83 0.84 0.85 0.91 1.01 1.13 1.31 1.59
1.02 1.05 1.06 1.15 1.22 1.22 1.28 1.30 1.34 1.49 1.40 1.15 1.21 1.32 1.31 1.14 1.07 1.05 1.03 1.01 0.97 1.00 0.94 0.90 0.85 0.78 0.72 0.68 0.72 0.74 0.74 0.74 0.73 0.71 0.71 0.74 0.73 0.77
1.05 1.15 1.11 1.14 1.25 1.31 1.45 1.43 1.48 1.69 1.68 1.47 1.43 1.48 1.40 1.30 1.20 1.11 0.98 0.92 0.92 1.01 0.95 0.88 0.80 0.74 0.71 0.69 0.66 0.66 0.66 0.65 0.65 0.63 0.61 0.60 0.60 0.59
1.23 1.27 1.27 1.38 1.37 1.41 1.48 1.47 1.53 1.73 1.87 1.74 1.66 1.74 1.72 1.50 1.37 1.20 1.07 1.07 0.93 0.93 0.95 0.90 0.85 0.80 0.74 0.74 0.74 0.70 0.65 0.61 0.58 0.59 0.62 0.64 0.64 0.63
1.35 1.37 1.38 1.46 1.52 1.59 1.61 1.71 1.82 1.98 2.11 2.03 1.96 2.03 2.04 1.89 1.70 1.40 1.30 1.23 1.11 0.97 1.01 0.98 0.94 0.87 0.80 0.74 0.71 0.71 0.70 0.68 0.65 0.61 0.60 0.62 0.64 0.66
1.32 1.36 1.33 1.38 1.45 1.57 1.59 1.75 1.95 2.14 2.30 2.33 2.32 2.46 2.39 2.21 1.94 1.60 1.51 1.42 1.29 1.12 1.02 0.92 0.87 0.81 0.78 0.77 0.75 0.75 0.73 0.71 0.69 0.68 0.65 0.61 0.59 0.58
1.44 1.46 1.39 1.34 1.33 1.38 1.46 1.58 1.73 1.92 2.17 2.37 2.46 2.52 2.54 2.39 2.17 1.91 1.58 1.34 1.23 1.12 1.11 1.03 0.91 0.86 0.77 0.72 0.80 0.78 0.73 0.71 0.69 0.68 0.67 0.67 0.64 0.60
1.43 1.44 1.29 1.16 1.20 1.15 1.23 1.28 1.31 1.41 1.56 1.80 2.02 2.09 2.24 2.31 2.19 1.89 1.61 1.38 1.21 1.16 1.17 1.07 1.00 0.94 0.84 0.81 0.89 0.78 0.72 0.70 0.68 0.67 0.69 0.70 0.72 0.70
1.25 1.28 1.27 1.16 1.12 1.15 1.15 1.11 1.03 1.04 1.11 1.16 1.31 1.55 1.76 2.00 2.06 1.96 1.87 1.61 1.33 1.12 1.07 1.02 0.92 0.87 0.83 0.81 0.87 0.80 0.74 0.70 0.68 0.67 0.65 0.65 0.66 0.67
1.27 1.27 1.28 1.18 1.18 1.07 1.05 1.04 0.98 0.94 0.93 0.98 1.06 1.24 1.48 1.66 1.86 1.87 1.80 1.69 1.46 1.17 1.02 0.99 0.90 0.86 0.84 0.77 0.76 0.78 0.71 0.71 0.70 0.68 0.65 0.64 0.63 0.62
1.28 1.29 1.29 1.17 1.18 1.09 1.10 1.13 1.05 0.96 0.94 0.91 0.95 1.02 1.10 1.34 1.59 1.60 1.56 1.56 1.44 1.22 0.99 0.95 0.90 0.89 0.92 0.77 0.64 0.63 0.63 0.70 0.74 0.71 0.68 0.64 0.63 0.54
1.22 1.19 1.23 1.19 1.05 0.96 0.92 0.94 0.98 0.96 0.98 0.98 0.96 1.00 1.07 1.17 1.35 1.44 1.48 1.42 1.35 1.17 0.96 0.97 0.97 0.93 0.88 0.78 0.68 0.62 0.58 0.57 0.60 0.64 0.68 0.70 0.67 0.54
1.11 1.11 1.13 1.09 0.94 0.83 0.74 0.73 0.75 0.73 0.80 0.90 0.93 0.92 0.96 1.02 1.16 1.39 1.53 1.50 1.34 1.19 1.10 1.07 1.00 0.95 0.87 0.76 0.68 0.62 0.60 0.57 0.53 0.51 0.54 0.71 0.75 0.75
0.99 1.16 1.15 1.02 0.94 0.87 0.80 0.71 0.65 0.61 0.67 0.76 0.75 0.76 0.79 0.86 1.02 1.32 1.57 1.71 1.59 1.32 1.18 1.11 1.06 1.00 0.93 0.77 0.61 0.54 0.54 0.53 0.50 0.49 0.51 0.58 0.64 0.70
1.00 1.14 1.19 1.16 1.09 1.00 0.90 0.73 0.59 0.57 0.60 0.66 0.71 0.73 0.81 0.90 1.01 1.09 1.33 1.54 1.61 1.44 1.21 1.11 1.05 1.06 0.97 0.80 0.67 0.55 0.48 0.47 0.45 0.48 0.53 0.55 0.59 0.65
1.12 1.26 1.38 1.39 1.36 1.25 1.08 0.92 0.79 0.75 0.72 0.71 0.80 0.83 0.87 0.89 0.92 0.96 1.11 1.27 1.29 1.22 1.16 1.14 1.16 1.14 1.13 1.03 0.82 0.60 0.51 0.44 0.42 0.49 0.57 0.57 0.55 0.58
0.92 1.13 1.40 1.47 1.48 1.45 1.34 1.16 1.01 0.93 0.89 0.87 0.89 0.90 0.90 0.93 0.96 1.01 1.08 1.19 1.19 1.10 1.07 1.05 1.14 1.23 1.18 1.09 0.87 0.68 0.55 0.48 0.44 0.51 0.57 0.58 0.54 0.54
0.64 0.85 1.16 1.37 1.45 1.48 1.41 1.23 1.06 1.01 1.03 0.99 0.96 0.94 0.93 0.94 1.01 1.05 1.08 1.14 1.19 1.13 1.05 1.06 1.12 1.18 1.12 0.92 0.76 0.66 0.63 0.58 0.59 0.58 0.57 0.58 0.54 0.49
0.51 0.68 0.94 1.21 1.31 1.37 1.36 1.29 1.18 1.13 1.12 1.08 1.04 1.01 1.00 1.00 1.00 1.03 1.07 1.10 1.14 1.19 1.12 1.07 1.07 1.06 1.01 0.93 0.83 0.74 0.68 0.71 0.74 0.69 0.61 0.62 0.62 0.62
0.64 0.70 0.86 1.09 1.25 1.35 1.36 1.33 1.28 1.24 1.23 1.22 1.18 1.15 1.11 1.14 1.10 1.04 1.08 1.17 1.20 1.24 1.15 0.96 0.92 1.05 1.17 1.27 1.13 0.86 0.73 0.72 0.79 0.83 0.77 0.78 0.75 0.74
0.84 0.85 0.91 1.05 1.21 1.33 1.36 1.33 1.36 1.34 1.35 1.32 1.28 1.24 1.19 1.19 1.20 1.18 1.19 1.22 1.18 1.15 1.15 1.10 1.13 1.23 1.25 1.21 1.05 0.93 0.85 0.80 0.87 0.90 0.84 0.78 0.74 0.67
0.99 0.95 0.98 1.08 1.18 1.29 1.31 1.29 1.30 1.35 1.34 1.31 1.28 1.26 1.22 1.18 1.18 1.21 1.19 1.23 1.21 1.19 1.25 1.30 1.28 1.24 1.17 1.15 1.08 1.03 0.98 0.91 0.91 0.89 0.77 0.72 0.61 0.54

GEFSNE_prec_meanprecacc_186.txt.gz
Total_Precipitation_Accumulation
0.94 1.10 1.07 0.96 0.99 0.97 1.06 1.22 1.29 1.13 1.05 1.07 1.12 1.18 1.36 1.44 1.53 1.43 1.27 1.28 1.12 0.96 0.88 0.85 0.88 0.94 0.99 1.00 1.03 1.09 1.14 1.18 1.30 1.51 1.80 2.11 2.41 2.68
1.09 1.21 1.20 1.13 1.14 1.11 1.11 1.21 1.39 1.38 1.22 1.09 1.17 1.18 1.22 1.12 1.23 1.16 1.17 1.25 1.12 1.02 0.98 0.93 0.88 0.87 0.87 0.89 0.90 0.88 0.87 0.87 0.88 0.94 1.04 1.17 1.35 1.64
1.12 1.15 1.14 1.22 1.28 1.27 1.34 1.36 1.40 1.53 1.43 1.17 1.24 1.35 1.33 1.17 1.10 1.08 1.06 1.05 1.04 1.09 1.04 1.00 0.92 0.85 0.77 0.74 0.77 0.80 0.78 0.78 0.76 0.74 0.74 0.77 0.77 0.82
1.16 1.25 1.19 1.21 1.31 1.36 1.50 1.49 1.53 1.74 1.72 1.50 1.46 1.52 1.43 1.32 1.23 1.16 1.02 0.96 0.97 1.08 1.02 0.95 0.86 0.79 0.76 0.74 0.71 0.70 0.69 0.68 0.68 0.67 0.66 0.65 0.65 0.64
1.31 1.36 1.35 1.45 1.44 1.47 1.53 1.53 1.60 1.80 1.93 1.80 1.72 1.79 1.78 1.55 1.42 1.23 1.10 1.10 0.96 0.99 1.01 0.95 0.90 0.85 0.79 0.79 0.78 0.73 0.67 0.63 0.60 0.61 0.65 0.67 0.69 0.68
1.42 1.42 1.44 1.52 1.59 1.65 1.66 1.76 1.88 2.05 2.18 2.10 2.01 2.08 2.10 1.94 1.73 1.43 1.33 1.26 1.14 1.00 1.05 1.03 0.98 0.92 0.84 0.77 0.74 0.73 0.72 0.69 0.66 0.63 0.62 0.64 0.67 0.69
1.39 1.42 1.38 1.43 1.50 1.61 1.63 1.78 1.99 2.19 2.35 2.39 2.36 2.50 2.43 2.25 1.97 1.63 1.54 1.45 1.31 1.14 1.04 0.94 0.90 0.83 0.80 0.79 0.77 0.77 0.76 0.74 0.73 0.72 0.69 0.65 0.62 0.62
1.51 1.53 1.46 1.40 1.38 1.43 1.51 1.63 1.78 1.98 2.22 2.42 2.50 2.57 2.59 2.42 2.20 1.94 1.60 1.35 1.24 1.13 1.12 1.04 0.93 0.88 0.78 0.73 0.82 0.80 0.76 0.73 0.72 0.72 0.72 0.72 0.70 0.66
1.51 1.51 1.37 1.23 1.27 1.21 1.30 1.35 1.38 1.48 1.60 1.84 2.06 2.12 2.28 2.35 2.22 1.91 1.63 1.39 1.22 1.17 1.18 1.08 1.01 0.95 0.85 0.82 0.90 0.80 0.74 0.72 0.70 0.69 0.72 0.74 0.76 0.74
1.32 1.34 1.33 1.23 1.20 1.23 1.23 1.17 1.08 1.08 1.16 1.20 1.33 1.57 1.79 2.03 2.09 1.98 1.89 1.63 1.34 1.13 1.08 1.03 0.93 0.88 0.84 0.83 0.89 0.83 0.77 0.74 0.72 0.70 0.69 0.69 0.70 0.71
1.33 1.32 1.34 1.24 1.25 1.15 1.12 1.09 1.02 0.97 0.97 1.02 1.09 1.26 1.50 1.69 1.89 1.90 1.82 1.71 1.47 1.18 1.03 1.00 0.91 0.87 0.86 0.79 0.78 0.81 0.75 0.75 0.74 0.71 0.69 0.68 0.67 0.68
1.33 1.34 1.37 1.27 1.30 1.22 1.22 1.23 1.13 1.02 0.98 0.94 0.97 1.04 1.12 1.36 1.62 1.63 1.58 1.58 1.46 1.24 1.00 0.97 0.91 0.91 0.94 0.78 0.66 0.66 0.68 0.76 0.80 0.77 0.74 0.70 0.68 0.59
1.27 1.24 1.27 1.25 1.11 1.02 0.98 1.01 1.03 1.01 1.02 1.00 0.99 1.02 1.09 1.18 1.36 1.46 1.49 1.44 1.36 1.18 0.98 1.00 1.00 0.96 0.92 0.82 0.72 0.66 0.64 0.64 0.67 0.71 0.75 0.76 0.73 0.60
1.14 1.13 1.15 1.10 0.95 0.84 0.75 0.74 0.76 0.74 0.81 0.90 0.93 0.93 0.96 1.02 1.17 1.39 1.54 1.51 1.36 1.20 1.12 1.10 1.05 1.00 0.93 0.81 0.72 0.66 0.65 0.62 0.57 0.55 0.58 0.76 0.81 0.80
1.01 1.17 1.16 1.02 0.94 0.87 0.80 0.72 0.65 0.61 0.68 0.77 0.75 0.76 0.79 0.86 1.02 1.32 1.57 1.72 1.60 1.34 1.20 1.14 1.10 1.04 0.97 0.80 0.64 0.57 0.57 0.56 0.52 0.52 0.54 0.61 0.67 0.73
1.01 1.15 1.20 1.17 1.09 1.01 0.90 0.73 0.59 0.58 0.61 0.67 0.71 0.74 0.82 0.90 1.02 1.10 1.34 1.55 1.62 1.45 1.22 1.12 1.06 1.07 0.99 0.82 0.70 0.58 0.51 0.50 0.48 0.51 0.56 0.58 0.62 0.68
1.13 1.27 1.39 1.40 1.37 1.26 1.10 0.93 0.81 0.76 0.73 0.72 0.81 0.84 0.87 0.90 0.93 0.97 1.13 1.28 1.30 1.22 1.16 1.15 1.16 1.16 1.14 1.05 0.84 0.62 0.53 0.46 0.44 0.52 0.61 0.61 0.58 0.62
0.93 1.14 1.40 1.48 1.49 1.47 1.36 1.17 1.02 0.94 0.90 0.88 0.90 0.91 0.90 0.94 0.97 1.02 1.09 1.20 1.20 1.11 1.08 1.06 1.16 1.25 1.20 1.11 0.89 0.70 0.57 0.51 0.47 0.54 0.60 0.62 0.57 0.57
0.64 0.86 1.17 1.38 1.46 1.50 1.42 1.24 1.07 1.02 1.04 0.99 0.96 0.95 0.94 0.95 1.02 1.07 1.09 1.16 1.21 1.15 1.07 1.08 1.14 1.21 1.15 0.95 0.79 0.69 0.66 0.61 0.63 0.62 0.61 0.62 0.57 0.53
0.52 0.69 0.95 1.22 1.32 1.38 1.37 1.30 1.20 1.15 1.14 1.09 1.05 1.02 1.01 1.02 1.01 1.04 1.08 1.12 1.15 1.21 1.14 1.09 1.09 1.08 1.04 0.96 0.88 0.78 0.72 0.75 0.79 0.74 0.66 0.68 0.68 0.68
0.66 0.72 0.87 1.10 1.26 1.36 1.37 1.35 1.29 1.26 1.24 1.24 1.19 1.16 1.13 1.15 1.11 1.06 1.09 1.18 1.21 1.25 1.16 0.97 0.94 1.07 1.19 1.30 1.16 0.89 0.77 0.77 0.85 0.89 0.83 0.83 0.80 0.79
0.86 0.86 0.92 1.06 1.22 1.35 1.38 1.35 1.37 1.35 1.36 1.33 1.29 1.25 1.20 1.20 1.21 1.18 1.19 1.23 1.18 1.16 1.16 1.10 1.14 1.24 1.27 1.23 1.08 0.96 0.88 0.84 0.92 0.95 0.89 0.83 0.79 0.72
1.00 0.96 0.98 1.09 1.19 1.30 1.32 1.29 1.30 1.36 1.35 1.32 1.29 1.27 1.23 1.19 1.19 1.21 1.20 1.23 1.22 1.20 1.26 1.31 1.30 1.26 1.20 1.17 1.11 1.05 1.01 0.94 0.94 0.93 0.82 0.77 0.66 0.58

GEFSNE_prec_meanprecacc_192.txt.gz
Total_Precipitation_Accumulation
0.99 1.15 1.11 1.00 1.02 1.00 1.09 1.24 1.32 1.15 1.05 1.08 1.13 1.19 1.38 1.45 1.55 1.45 1.29 1.32 1.17 1.00 0.91 0.88 0.91 0.98 1.05 1.08 1.14 1.22 1.28 1.32 1.42 1.62 1.89 2.19 2.49 2.76
1.14 1.25 1.24 1.16 1.18 1.15 1.15 1.25 1.43 1.40 1.24 1.11 1.19 1.19 1.23 1.13 1.25 1.18 1.19 1.28 1.15 1.07 1.03 0.98 0.94 0.93 0.94 0.98 1.00 0.97 0.96 0.96 0.97 1.02 1.11 1.23 1.40 1.69
1.17 1.19 1.18 1.26 1.32 1.31 1.38 1.39 1.43 1.56 1.45 1.19 1.25 1.36 1.35 1.19 1.13 1.11 1.09 1.08 1.07 1.12 1.07 1.05 1.00 0.93 0.86 0.82 0.86 0.86 0.83 0.83 0.81 0.79 0.79 0.82 0.81 0.86
1.21 1.31 1.25 1.27 1.36 1.42 1.56 1.54 1.58 1.79 1.76 1.53 1.49 1.55 1.46 1.35 1.26 1.18 1.05 0.99 1.00 1.12 1.06 0.99 0.92 0.86 0.82 0.79 0.75 0.73 0.72 0.71 0.71 0.70 0.69 0.68 0.68 0.68
1.36 1.41 1.42 1.53 1.51 1.55 1.62 1.62 1.68 1.88 2.01 1.86 1.77 1.84 1.80 1.57 1.44 1.26 1.13 1.13 0.99 1.02 1.06 1.00 0.95 0.90 0.83 0.83 0.83 0.78 0.71 0.66 0.63 0.64 0.68 0.70 0.71 0.71
1.45 1.46 1.48 1.57 1.64 1.71 1.73 1.83 1.96 2.12 2.26 2.18 2.09 2.15 2.15 1.98 1.76 1.46 1.36 1.29 1.17 1.05 1.11 1.08 1.03 0.96 0.87 0.80 0.77 0.77 0.76 0.73 0.70 0.66 0.66 0.68 0.71 0.73
1.44 1.48 1.44 1.49 1.57 1.68 1.69 1.84 2.05 2.25 2.43 2.47 2.44 2.57 2.49 2.31 2.02 1.68 1.59 1.50 1.37 1.19 1.10 0.98 0.94 0.86 0.82 0.81 0.79 0.78 0.77 0.76 0.75 0.74 0.72 0.69 0.66 0.65
1.56 1.60 1.56 1.49 1.47 1.51 1.57 1.68 1.83 2.02 2.27 2.47 2.55 2.63 2.67 2.50 2.28 2.01 1.67 1.41 1.28 1.16 1.15 1.06 0.95 0.90 0.80 0.75 0.84 0.81 0.77 0.74 0.73 0.73 0.74 0.75 0.74 0.71
1.54 1.55 1.43 1.33 1.34 1.27 1.36 1.40 1.42 1.52 1.66 1.89 2.12 2.18 2.35 2.42 2.29 1.98 1.69 1.44 1.24 1.19 1.20 1.11 1.02 0.96 0.87 0.85 0.93 0.82 0.75 0.74 0.71 0.71 0.74 0.77 0.79 0.79
1.35 1.37 1.37 1.28 1.26 1.30 1.29 1.21 1.12 1.14 1.22 1.26 1.39 1.63 1.85 2.09 2.15 2.03 1.93 1.66 1.36 1.15 1.10 1.06 0.95 0.89 0.86 0.84 0.91 0.85 0.79 0.76 0.73 0.72 0.71 0.71 0.72 0.75
1.38 1.38 1.38 1.28 1.30 1.20 1.17 1.13 1.06 1.03 1.03 1.08 1.15 1.33 1.56 1.73 1.93 1.93 1.85 1.74 1.50 1.20 1.06 1.02 0.92 0.89 0.87 0.81 0.81 0.85 0.79 0.78 0.76 0.73 0.71 0.70 0.70 0.72
1.42 1.42 1.43 1.31 1.34 1.27 1.26 1.27 1.18 1.09 1.06 1.03 1.06 1.12 1.18 1.42 1.66 1.67 1.62 1.62 1.49 1.27 1.03 1.00 0.93 0.93 0.96 0.80 0.68 0.68 0.70 0.78 0.83 0.80 0.77 0.73 0.72 0.63
1.35 1.31 1.35 1.32 1.17 1.07 1.01 1.04 1.07 1.05 1.06 1.04 1.04 1.07 1.13 1.23 1.41 1.50 1.53 1.48 1.39 1.21 1.00 1.01 1.01 0.98 0.94 0.84 0.73 0.67 0.64 0.65 0.68 0.73 0.77 0.79 0.76 0.63
1.21 1.19 1.21 1.15 0.98 0.86 0.76 0.75 0.77 0.75 0.82 0.91 0.95 0.95 0.99 1.05 1.18 1.41 1.55 1.52 1.37 1.21 1.14 1.12 1.06 1.02 0.96 0.84 0.74 0.68 0.66 0.63 0.58 0.56 0.60 0.78 0.83 0.83
1.05 1.22 1.21 1.07 0.97 0.89 0.81 0.73 0.66 0.61 0.68 0.77 0.76 0.77 0.80 0.87 1.03 1.33 1.58 1.73 1.61 1.34 1.21 1.16 1.11 1.06 1.00 0.83 0.67 0.60 0.60 0.58 0.54 0.53 0.55 0.63 0.69 0.76
1.07 1.21 1.27 1.22 1.13 1.03 0.92 0.75 0.60 0.59 0.62 0.67 0.72 0.74 0.82 0.91 1.02 1.11 1.34 1.55 1.63 1.46 1.23 1.13 1.08 1.09 1.00 0.83 0.71 0.60 0.54 0.54 0.52 0.55 0.59 0.61 0.65 0.70
1.16 1.30 1.43 1.44 1.40 1.28 1.12 0.95 0.82 0.77 0.74 0.73 0.82 0.85 0.88 0.91 0.93 0.98 1.13 1.29 1.32 1.24 1.18 1.16 1.17 1.17 1.15 1.06 0.85 0.64 0.55 0.48 0.47 0.56 0.65 0.65 0.61 0.64
0.94 1.15 1.42 1.49 1.50 1.47 1.36 1.18 1.03 0.95 0.90 0.89 0.91 0.91 0.91 0.95 0.98 1.03 1.10 1.21 1.22 1.13 1.10 1.08 1.17 1.26 1.22 1.14 0.93 0.73 0.61 0.54 0.51 0.58 0.64 0.65 0.60 0.59
0.65 0.87 1.17 1.39 1.47 1.50 1.42 1.24 1.07 1.02 1.05 1.00 0.97 0.95 0.94 0.95 1.03 1.08 1.10 1.17 1.22 1.17 1.09 1.09 1.16 1.23 1.18 0.98 0.83 0.72 0.70 0.65 0.66 0.65 0.65 0.65 0.61 0.56
0.53 0.69 0.95 1.23 1.33 1.39 1.37 1.31 1.20 1.16 1.14 1.10 1.06 1.03 1.02 1.02 1.02 1.05 1.09 1.12 1.16 1.22 1.15 1.10 1.11 1.10 1.07 0.99 0.91 0.80 0.74 0.78 0.82 0.78 0.70 0.71 0.71 0.72
0.67 0.73 0.88 1.10 1.26 1.36 1.38 1.35 1.30 1.27 1.25 1.24 1.20 1.16 1.13 1.16 1.12 1.06 1.10 1.19 1.22 1.25 1.17 0.97 0.94 1.08 1.21 1.31 1.17 0.90 0.78 0.79 0.87 0.91 0.86 0.87 0.84 0.82
0.87 0.87 0.93 1.07 1.23 1.35 1.38 1.35 1.37 1.36 1.36 1.33 1.29 1.25 1.20 1.21 1.21 1.19 1.20 1.24 1.19 1.17 1.17 1.11 1.15 1.25 1.28 1.24 1.09 0.97 0.89 0.85 0.93 0.97 0.91 0.85 0.82 0.74
1.01 0.97 1.00 1.10 1.20 1.31 1.33 1.30 1.31 1.37 1.36 1.33 1.29 1.28 1.24 1.20 1.20 1.22 1.21 1.24 1.23 1.21 1.27 1.33 1.32 1.28 1.21 1.19 1.12 1.07 1.02 0.95 0.95 0.94 0.84 0.79 0.68 0.60

GEFSNE_prec_meanprecacc_198.txt.gz
Total_Precipitation_Accumulation
1.05 1.20 1.16 1.05 1.07 1.06 1.14 1.31 1.39 1.21 1.10 1.11 1.16 1.20 1.39 1.46 1.57 1.47 1.32 1.34 1.20 1.04 0.95 0.92 0.95 1.02 1.09 1.12 1.20 1.29 1.37 1.42 1.51 1.69 1.96 2.25 2.56 2.83
1.17 1.28 1.28 1.21 1.23 1.20 1.19 1.29 1.48 1.46 1.29 1.15 1.22 1.21 1.24 1.14 1.27 1.20 1.22 1.30 1.17 1.09 1.06 1.02 0.98 0.99 0.99 1.04 1.06 1.04 1.03 1.02 1.03 1.07 1.16 1.29 1.47 1.77
1.19 1.21 1.21 1.30 1.36 1.35 1.42 1.44 1.48 1.61 1.50 1.22 1.28 1.40 1.38 1.22 1.15 1.14 1.11 1.10 1.09 1.14 1.10 1.08 1.03 0.97 0.91 0.87 0.91 0.93 0.89 0.87 0.85 0.83 0.83 0.86 0.85 0.91
1.23 1.34 1.28 1.31 1.41 1.46 1.60 1.58 1.62 1.84 1.81 1.59 1.55 1.61 1.51 1.40 1.29 1.21 1.07 1.00 1.01 1.14 1.09 1.03 0.97 0.89 0.85 0.81 0.78 0.77 0.75 0.73 0.73 0.73 0.72 0.72 0.72 0.71
1.39 1.45 1.48 1.59 1.57 1.61 1.67 1.67 1.72 1.93 2.08 1.93 1.84 1.91 1.86 1.62 1.48 1.29 1.16 1.15 1.00 1.05 1.09 1.03 0.98 0.93 0.86 0.86 0.86 0.80 0.73 0.68 0.65 0.66 0.70 0.73 0.75 0.74
1.51 1.52 1.54 1.62 1.69 1.77 1.79 1.88 2.01 2.19 2.33 2.25 2.15 2.20 2.20 2.03 1.81 1.49 1.39 1.32 1.19 1.06 1.14 1.12 1.07 1.00 0.91 0.84 0.81 0.80 0.78 0.75 0.72 0.68 0.68 0.70 0.73 0.76
1.48 1.51 1.47 1.54 1.62 1.73 1.73 1.89 2.11 2.32 2.49 2.54 2.51 2.63 2.54 2.36 2.07 1.73 1.63 1.54 1.40 1.22 1.13 1.02 0.98 0.90 0.87 0.86 0.83 0.82 0.80 0.78 0.77 0.77 0.75 0.71 0.69 0.68
1.60 1.63 1.58 1.52 1.49 1.53 1.61 1.72 1.87 2.06 2.32 2.52 2.61 2.67 2.71 2.55 2.34 2.07 1.73 1.48 1.34 1.21 1.20 1.11 1.00 0.95 0.86 0.80 0.89 0.85 0.80 0.77 0.75 0.75 0.76 0.77 0.76 0.73
1.58 1.58 1.46 1.36 1.38 1.31 1.41 1.45 1.47 1.57 1.69 1.93 2.16 2.22 2.39 2.48 2.36 2.04 1.74 1.49 1.29 1.24 1.24 1.14 1.06 1.00 0.90 0.88 0.97 0.86 0.79 0.77 0.74 0.73 0.75 0.78 0.80 0.80
1.37 1.40 1.40 1.31 1.30 1.35 1.35 1.28 1.18 1.19 1.27 1.29 1.42 1.67 1.90 2.15 2.22 2.10 2.00 1.72 1.42 1.20 1.14 1.10 0.99 0.93 0.90 0.89 0.97 0.90 0.84 0.80 0.77 0.75 0.73 0.73 0.74 0.77
1.42 1.41 1.41 1.31 1.34 1.25 1.22 1.20 1.13 1.09 1.09 1.13 1.20 1.38 1.63 1.81 1.99 1.99 1.92 1.81 1.57 1.26 1.11 1.08 0.97 0.93 0.91 0.85 0.85 0.89 0.84 0.84 0.82 0.79 0.76 0.74 0.74 0.76
1.45 1.47 1.49 1.37 1.40 1.32 1.30 1.32 1.23 1.15 1.12 1.09 1.12 1.18 1.24 1.49 1.75 1.76 1.71 1.71 1.58 1.36 1.10 1.07 1.00 0.99 1.01 0.83 0.71 0.71 0.73 0.81 0.85 0.81 0.79 0.75 0.74 0.65
1.39 1.37 1.42 1.41 1.25 1.15 1.07 1.08 1.11 1.09 1.09 1.08 1.06 1.09 1.16 1.26 1.45 1.55 1.59 1.54 1.46 1.27 1.05 1.07 1.06 1.02 0.97 0.86 0.74 0.69 0.66 0.66 0.70 0.74 0.78 0.80 0.77 0.64
1.25 1.24 1.25 1.20 1.03 0.92 0.81 0.80 0.81 0.77 0.84 0.93 0.96 0.96 1.00 1.07 1.21 1.44 1.58 1.56 1.41 1.26 1.17 1.15 1.10 1.05 0.99 0.87 0.76 0.69 0.67 0.64 0.59 0.57 0.61 0.79 0.85 0.84
1.08 1.26 1.25 1.11 1.01 0.94 0.87 0.77 0.69 0.63 0.70 0.79 0.78 0.80 0.82 0.90 1.05 1.35 1.61 1.76 1.65 1.38 1.23 1.18 1.14 1.08 1.02 0.86 0.69 0.61 0.61 0.60 0.55 0.54 0.57 0.64 0.71 0.77
1.09 1.23 1.31 1.29 1.20 1.10 0.99 0.81 0.65 0.63 0.65 0.71 0.75 0.77 0.85 0.93 1.04 1.11 1.35 1.56 1.64 1.48 1.24 1.14 1.09 1.11 1.03 0.87 0.74 0.63 0.55 0.55 0.53 0.56 0.61 0.63 0.66 0.72
1.19 1.31 1.44 1.46 1.43 1.32 1.16 1.00 0.86 0.81 0.77 0.76 0.84 0.87 0.89 0.91 0.94 0.98 1.14 1.30 1.32 1.25 1.18 1.17 1.18 1.18 1.18 1.09 0.88 0.66 0.57 0.51 0.49 0.57 0.67 0.67 0.64 0.66
0.96 1.16 1.43 1.50 1.52 1.49 1.38 1.20 1.05 0.97 0.92 0.89 0.91 0.92 0.91 0.95 0.98 1.04 1.10 1.21 1.22 1.14 1.10 1.08 1.18 1.28 1.25 1.17 0.95 0.75 0.63 0.56 0.53 0.61 0.66 0.67 0.62 0.62
0.67 0.88 1.18 1.40 1.48 1.51 1.43 1.25 1.08 1.03 1.05 1.00 0.97 0.95 0.95 0.96 1.03 1.08 1.11 1.18 1.23 1.18 1.10 1.11 1.17 1.24 1.19 1.00 0.84 0.73 0.71 0.67 0.69 0.68 0.68 0.68 0.63 0.58
0.53 0.70 0.96 1.23 1.33 1.40 1.38 1.32 1.21 1.16 1.15 1.10 1.06 1.03 1.02 1.03 1.02 1.05 1.09 1.13 1.17 1.23 1.16 1.11 1.11 1.11 1.08 1.01 0.92 0.81 0.75 0.79 0.85 0.81 0.74 0.74 0.74 0.74
0.68 0.74 0.89 1.11 1.27 1.38 1.39 1.36 1.30 1.27 1.25 1.25 1.20 1.17 1.14 1.17 1.13 1.07 1.10 1.20 1.22 1.26 1.18 0.98 0.95 1.09 1.22 1.32 1.18 0.91 0.79 0.80 0.89 0.94 0.89 0.90 0.87 0.85
0.88 0.88 0.94 1.08 1.24 1.36 1.39 1.36 1.38 1.36 1.37 1.34 1.30 1.26 1.21 1.22 1.22 1.20 1.22 1.26 1.21 1.18 1.18 1.12 1.16 1.27 1.30 1.26 1.11 0.98 0.90 0.87 0.94 0.98 0.94 0.88 0.86 0.78
1.03 0.99 1.01 1.12 1.22 1.32 1.34 1.31 1.32 1.38 1.36 1.34 1.30 1.29 1.25 1.21 1.22 1.24 1.23 1.26 1.25 1.24 1.30 1.35 1.34 1.30 1.24 1.21 1.15 1.09 1.05 0.98 0.98 0.96 0.87 0.82 0.71 0.63

GEFSNE_prec_meanprecacc_204.txt.gz
Total_Precipitation_Accumulation
1.10 1.27 1.22 1.10 1.13 1.13 1.24 1.41 1.49 1.31 1.20 1.19 1.21 1.22 1.41 1.51 1.63 1.53 1.37 1.40 1.25 1.07 0.97 0.93 0.96 1.04 1.10 1.14 1.23 1.32 1.41 1.47 1.58 1.77 2.05 2.35 2.65 2.92
1.22 1.34 1.34 1.25 1.28 1.26 1.27 1.39 1.59 1.57 1.40 1.25 1.29 1.25 1.28 1.17 1.31 1.24 1.26 1.34 1.20 1.12 1.08 1.04 1.00 1.01 1.02 1.07 1.09 1.07 1.06 1.06 1.07 1.12 1.21 1.35 1.55 1.85
1.23 1.25 1.26 1.35 1.42 1.40 1.48 1.51 1.57 1.70 1.58 1.32 1.37 1.47 1.44 1.28 1.21 1.18 1.16 1.15 1.13 1.17 1.12 1.10 1.05 0.99 0.93 0.89 0.93 0.96 0.92 0.91 0.89 0.87 0.87 0.90 0.90 0.95
1.27 1.39 1.32 1.36 1.46 1.51 1.65 1.63 1.68 1.91 1.90 1.68 1.63 1.68 1.57 1.46 1.36 1.27 1.11 1.04 1.05 1.17 1.11 1.05 0.98 0.91 0.87 0.83 0.80 0.79 0.78 0.77 0.77 0.77 0.77 0.76 0.76 0.75
1.44 1.50 1.52 1.63 1.61 1.65 1.71 1.71 1.77 1.99 2.16 2.02 1.91 1.97 1.91 1.67 1.54 1.34 1.20 1.20 1.04 1.08 1.12 1.06 1.00 0.94 0.88 0.88 0.88 0.83 0.75 0.71 0.67 0.69 0.74 0.77 0.80 0.79
1.55 1.56 1.57 1.66 1.72 1.81 1.83 1.92 2.05 2.23 2.40 2.32 2.23 2.27 2.26 2.08 1.85 1.54 1.43 1.36 1.23 1.10 1.17 1.14 1.10 1.03 0.94 0.87 0.83 0.82 0.80 0.78 0.75 0.72 0.72 0.75 0.78 0.80
1.51 1.54 1.51 1.57 1.65 1.76 1.76 1.92 2.15 2.36 2.54 2.60 2.58 2.69 2.60 2.42 2.11 1.77 1.68 1.59 1.46 1.27 1.18 1.08 1.04 0.97 0.93 0.90 0.86 0.84 0.82 0.81 0.81 0.82 0.81 0.77 0.75 0.74
1.64 1.66 1.61 1.55 1.52 1.56 1.63 1.74 1.89 2.09 2.35 2.57 2.66 2.73 2.76 2.60 2.38 2.12 1.79 1.54 1.42 1.30 1.29 1.20 1.08 1.02 0.91 0.84 0.93 0.90 0.85 0.82 0.81 0.82 0.83 0.84 0.83 0.81
1.62 1.62 1.49 1.39 1.42 1.35 1.45 1.48 1.49 1.59 1.72 1.97 2.20 2.26 2.44 2.53 2.41 2.09 1.79 1.54 1.35 1.32 1.34 1.24 1.13 1.06 0.95 0.93 1.03 0.92 0.85 0.83 0.80 0.78 0.80 0.82 0.84 0.85
1.41 1.44 1.45 1.37 1.36 1.41 1.39 1.31 1.20 1.21 1.29 1.33 1.46 1.71 1.95 2.21 2.27 2.16 2.07 1.79 1.50 1.30 1.25 1.19 1.06 1.00 0.96 0.95 1.04 0.97 0.90 0.86 0.83 0.80 0.78 0.77 0.78 0.81
1.46 1.45 1.46 1.35 1.38 1.29 1.25 1.23 1.16 1.13 1.14 1.18 1.25 1.45 1.71 1.89 2.06 2.05 1.98 1.87 1.63 1.35 1.20 1.15 1.05 1.02 1.01 0.94 0.93 0.96 0.89 0.88 0.86 0.83 0.79 0.77 0.77 0.79
1.47 1.49 1.51 1.39 1.42 1.35 1.32 1.34 1.26 1.17 1.15 1.13 1.16 1.22 1.30 1.55 1.79 1.79 1.75 1.76 1.64 1.42 1.17 1.14 1.08 1.07 1.09 0.90 0.76 0.75 0.76 0.83 0.86 0.83 0.80 0.77 0.76 0.67
1.41 1.39 1.44 1.43 1.29 1.18 1.10 1.11 1.15 1.13 1.14 1.12 1.10 1.13 1.20 1.30 1.48 1.58 1.62 1.58 1.50 1.32 1.11 1.12 1.12 1.08 1.03 0.91 0.79 0.72 0.68 0.68 0.71 0.75 0.80 0.82 0.79 0.65
1.28 1.26 1.28 1.23 1.07 0.95 0.84 0.82 0.84 0.81 0.88 0.97 1.01 1.00 1.04 1.11 1.24 1.47 1.62 1.60 1.46 1.31 1.23 1.20 1.15 1.10 1.04 0.92 0.81 0.73 0.70 0.66 0.60 0.58 0.62 0.82 0.87 0.86
1.10 1.28 1.27 1.14 1.04 0.97 0.90 0.81 0.72 0.67 0.75 0.84 0.82 0.83 0.85 0.93 1.08 1.38 1.63 1.79 1.68 1.41 1.26 1.21 1.17 1.12 1.06 0.89 0.72 0.65 0.65 0.64 0.58 0.56 0.58 0.67 0.74 0.80
1.10 1.25 1.32 1.30 1.22 1.13 1.02 0.85 0.70 0.68 0.70 0.75 0.79 0.81 0.89 0.96 1.06 1.14 1.37 1.59 1.66 1.49 1.26 1.16 1.11 1.13 1.05 0.89 0.77 0.65 0.58 0.59 0.58 0.60 0.64 0.65 0.69 0.74
1.20 1.33 1.46 1.47 1.44 1.33 1.18 1.02 0.89 0.84 0.80 0.79 0.87 0.89 0.92 0.94 0.96 1.00 1.15 1.31 1.34 1.26 1.19 1.17 1.19 1.19 1.19 1.10 0.90 0.69 0.60 0.54 0.53 0.62 0.72 0.72 0.67 0.69
0.98 1.19 1.47 1.54 1.55 1.53 1.41 1.22 1.06 0.98 0.93 0.91 0.93 0.93 0.93 0.96 0.99 1.04 1.11 1.22 1.23 1.15 1.12 1.10 1.19 1.29 1.26 1.17 0.96 0.76 0.65 0.60 0.57 0.65 0.72 0.72 0.66 0.65
0.68 0.90 1.20 1.43 1.52 1.55 1.47 1.29 1.11 1.05 1.06 1.02 0.98 0.97 0.96 0.97 1.04 1.09 1.12 1.19 1.24 1.19 1.11 1.13 1.19 1.26 1.21 1.01 0.85 0.73 0.72 0.69 0.71 0.72 0.72 0.72 0.67 0.61
0.55 0.72 0.98 1.25 1.35 1.41 1.40 1.34 1.23 1.18 1.16 1.11 1.08 1.05 1.03 1.04 1.03 1.06 1.11 1.14 1.18 1.24 1.17 1.13 1.14 1.13 1.10 1.03 0.94 0.83 0.76 0.80 0.86 0.83 0.76 0.78 0.77 0.77
0.70 0.76 0.91 1.14 1.30 1.40 1.42 1.40 1.34 1.30 1.27 1.26 1.21 1.18 1.15 1.18 1.14 1.08 1.12 1.21 1.24 1.28 1.19 1.00 0.97 1.12 1.26 1.38 1.24 0.95 0.82 0.81 0.91 0.96 0.91 0.94 0.92 0.90
0.90 0.91 0.97 1.12 1.27 1.40 1.43 1.39 1.41 1.39 1.40 1.37 1.32 1.27 1.22 1.23 1.24 1.21 1.23 1.27 1.23 1.20 1.20 1.15 1.20 1.31 1.34 1.31 1.16 1.04 0.95 0.90 0.96 1.01 0.97 0.93 0.91 0.84
1.05 1.02 1.05 1.15 1.24 1.35 1.36 1.33 1.34 1.40 1.39 1.35 1.32 1.30 1.26 1.22 1.23 1.25 1.24 1.28 1.27 1.26 1.32 1.38 1.38 1.34 1.27 1.25 1.20 1.15 1.10 1.03 1.02 1.00 0.92 0.87 0.75 0.67

GEFSNE_prec_meanprecacc_210.txt.gz
Total_Precipitation_Accumulation
1.13 1.31 1.26 1.13 1.16 1.15 1.27 1.46 1.53 1.35 1.23 1.22 1.24 1.26 1.44 1.53 1.67 1.56 1.40 1.45 1.32 1.16 1.05 1.00 1.03 1.10 1.16 1.20 1.27 1.37 1.46 1.53 1.62 1.82 2.11 2.43 2.75 3.06
1.27 1.39 1.37 1.27 1.30 1.28 1.29 1.41 1.63 1.61 1.43 1.28 1.32 1.28 1.32 1.21 1.37 1.29 1.30 1.40 1.26 1.17 1.13 1.09 1.05 1.06 1.07 1.12 1.14 1.12 1.12 1.13 1.14 1.19 1.29 1.44 1.65 1.94
1.27 1.29 1.30 1.38 1.44 1.42 1.50 1.54 1.60 1.73 1.61 1.35 1.40 1.49 1.47 1.31 1.26 1.24 1.21 1.20 1.18 1.22 1.16 1.13 1.08 1.02 0.96 0.92 0.96 0.99 0.96 0.96 0.95 0.95 0.96 0.98 0.97 1.03
1.31 1.43 1.37 1.40 1.50 1.54 1.68 1.65 1.71 1.93 1.92 1.70 1.66 1.72 1.60 1.50 1.41 1.32 1.16 1.10 1.11 1.23 1.16 1.09 1.01 0.94 0.90 0.86 0.83 0.81 0.80 0.79 0.80 0.80 0.81 0.80 0.81 0.80
1.47 1.54 1.57 1.68 1.64 1.67 1.73 1.73 1.79 2.01 2.19 2.04 1.93 1.99 1.94 1.70 1.59 1.38 1.24 1.25 1.09 1.13 1.17 1.10 1.04 0.98 0.91 0.91 0.91 0.85 0.77 0.73 0.69 0.71 0.76 0.80 0.84 0.86
1.58 1.59 1.61 1.69 1.75 1.84 1.86 1.95 2.08 2.26 2.42 2.34 2.27 2.31 2.30 2.12 1.90 1.57 1.46 1.39 1.25 1.12 1.20 1.18 1.14 1.07 0.99 0.91 0.87 0.85 0.83 0.80 0.77 0.74 0.75 0.78 0.82 0.85
1.56 1.58 1.54 1.60 1.69 1.80 1.80 1.95 2.19 2.41 2.58 2.63 2.62 2.75 2.65 2.47 2.16 1.82 1.72 1.62 1.48 1.29 1.21 1.10 1.08 1.02 1.00 0.98 0.94 0.91 0.88 0.85 0.84 0.84 0.84 0.81 0.80 0.80
1.68 1.69 1.63 1.57 1.55 1.60 1.68 1.78 1.93 2.14 2.40 2.60 2.69 2.77 2.80 2.65 2.44 2.18 1.85 1.59 1.45 1.33 1.32 1.24 1.14 1.09 1.00 0.93 1.01 0.97 0.90 0.86 0.85 0.85 0.87 0.88 0.88 0.86
1.64 1.65 1.51 1.41 1.45 1.40 1.51 1.55 1.56 1.65 1.78 2.02 2.23 2.28 2.46 2.55 2.45 2.13 1.83 1.58 1.39 1.36 1.38 1.30 1.22 1.14 1.04 1.01 1.09 0.95 0.89 0.86 0.84 0.83 0.85 0.88 0.90 0.90
1.43 1.46 1.48 1.40 1.40 1.46 1.46 1.37 1.26 1.26 1.34 1.37 1.49 1.73 1.98 2.25 2.32 2.20 2.11 1.84 1.56 1.36 1.30 1.26 1.13 1.06 1.00 0.98 1.06 0.99 0.92 0.89 0.86 0.84 0.82 0.82 0.84 0.85
1.48 1.47 1.48 1.38 1.43 1.34 1.30 1.27 1.19 1.15 1.16 1.21 1.28 1.48 1.74 1.94 2.13 2.12 2.05 1.93 1.69 1.41 1.27 1.23 1.12 1.08 1.06 0.98 0.97 0.99 0.92 0.90 0.89 0.85 0.81 0.80 0.79 0.81
1.51 1.51 1.53 1.41 1.46 1.38 1.35 1.36 1.27 1.19 1.17 1.16 1.18 1.24 1.32 1.58 1.85 1.85 1.81 1.82 1.69 1.48 1.23 1.22 1.16 1.15 1.16 0.96 0.81 0.79 0.79 0.86 0.88 0.84 0.81 0.78 0.77 0.68
1.44 1.41 1.47 1.48 1.32 1.21 1.13 1.13 1.17 1.16 1.17 1.15 1.12 1.14 1.21 1.31 1.51 1.61 1.66 1.61 1.54 1.37 1.17 1.19 1.19 1.15 1.09 0.96 0.84 0.77 0.73 0.72 0.74 0.78 0.81 0.83 0.80 0.66
1.31 1.29 1.30 1.26 1.09 0.97 0.85 0.83 0.86 0.83 0.90 1.00 1.03 1.02 1.05 1.12 1.27 1.51 1.65 1.63 1.49 1.36 1.28 1.25 1.20 1.16 1.09 0.96 0.85 0.77 0.74 0.68 0.62 0.59 0.63 0.83 0.89 0.87
1.11 1.29 1.28 1.15 1.05 0.98 0.92 0.83 0.74 0.68 0.76 0.85 0.83 0.84 0.87 0.95 1.11 1.41 1.66 1.82 1.71 1.43 1.29 1.23 1.19 1.14 1.08 0.91 0.74 0.66 0.66 0.65 0.59 0.58 0.60 0.68 0.75 0.82
1.11 1.26 1.33 1.32 1.23 1.14 1.03 0.86 0.71 0.69 0.71 0.76 0.80 0.82 0.90 0.98 1.08 1.16 1.39 1.60 1.68 1.51 1.27 1.18 1.13 1.15 1.07 0.90 0.78 0.66 0.59 0.59 0.58 0.61 0.66 0.67 0.71 0.77
1.21 1.34 1.47 1.48 1.45 1.34 1.18 1.02 0.90 0.85 0.81 0.80 0.88 0.90 0.93 0.96 0.98 1.02 1.17 1.32 1.34 1.27 1.20 1.18 1.19 1.20 1.20 1.11 0.91 0.69 0.61 0.54 0.53 0.63 0.74 0.74 0.71 0.73
1.00 1.21 1.48 1.55 1.56 1.53 1.42 1.23 1.08 0.99 0.94 0.92 0.94 0.94 0.94 0.98 1.01 1.06 1.13 1.23 1.24 1.16 1.12 1.11 1.20 1.31 1.27 1.18 0.96 0.76 0.65 0.60 0.58 0.66 0.73 0.74 0.70 0.70
0.71 0.91 1.21 1.44 1.53 1.56 1.49 1.30 1.13 1.07 1.09 1.04 1.00 0.99 0.98 1.00 1.07 1.11 1.14 1.21 1.26 1.20 1.12 1.14 1.21 1.28 1.22 1.02 0.85 0.75 0.73 0.70 0.73 0.73 0.74 0.74 0.70 0.65
0.56 0.73 0.99 1.26 1.36 1.42 1.41 1.36 1.25 1.21 1.18 1.13 1.09 1.07 1.05 1.07 1.06 1.09 1.13 1.16 1.19 1.25 1.18 1.14 1.15 1.14 1.11 1.05 0.96 0.85 0.79 0.83 0.88 0.85 0.79 0.81 0.81 0.81
0.71 0.78 0.93 1.15 1.31 1.41 1.44 1.41 1.35 1.31 1.28 1.27 1.22 1.19 1.16 1.20 1.16 1.10 1.13 1.22 1.25 1.29 1.20 1.01 0.98 1.14 1.28 1.40 1.26 0.97 0.84 0.85 0.95 1.00 0.95 0.97 0.97 0.95
0.92 0.93 1.00 1.14 1.30 1.42 1.45 1.41 1.41 1.40 1.40 1.38 1.33 1.29 1.24 1.24 1.25 1.22 1.24 1.28 1.24 1.21 1.21 1.16 1.21 1.33 1.37 1.34 1.19 1.06 0.98 0.93 1.00 1.04 1.01 0.96 0.94 0.87
1.08 1.05 1.07 1.17 1.26 1.37 1.38 1.34 1.35 1.41 1.40 1.37 1.33 1.32 1.27 1.24 1.24 1.26 1.25 1.29 1.27 1.27 1.33 1.39 1.39 1.36 1.30 1.28 1.23 1.18 1.13 1.07 1.05 1.03 0.94 0.90 0.78 0.69

GEFSNE_prec_meanprecacc_216.txt.gz
Total_Precipitation_Accumulation
1.16 1.34 1.28 1.15 1.18 1.17 1.28 1.47 1.55 1.36 1.24 1.23 1.25 1.28 1.47 1.55 1.68 1.58 1.41 1.47 1.34 1.18 1.07 1.02 1.04 1.11 1.18 1.24 1.33 1.43 1.53 1.61 1.72 1.92 2.22 2.57 2.90 3.22
1.32 1.43 1.40 1.29 1.32 1.31 1.31 1.43 1.65 1.63 1.44 1.29 1.33 1.30 1.35 1.24 1.39 1.30 1.31 1.43 1.28 1.19 1.15 1.11 1.07 1.08 1.09 1.14 1.17 1.16 1.16 1.17 1.18 1.24 1.36 1.53 1.76 2.07
1.32 1.34 1.34 1.42 1.48 1.47 1.55 1.58 1.64 1.76 1.63 1.36 1.41 1.51 1.50 1.34 1.29 1.26 1.23 1.22 1.19 1.24 1.18 1.15 1.10 1.04 0.98 0.94 0.98 1.01 0.99 0.99 0.98 0.98 1.00 1.05 1.07 1.15
1.37 1.50 1.43 1.46 1.54 1.58 1.72 1.68 1.73 1.95 1.94 1.71 1.67 1.73 1.61 1.51 1.43 1.34 1.19 1.12 1.13 1.25 1.18 1.11 1.04 0.97 0.92 0.88 0.86 0.84 0.83 0.82 0.82 0.83 0.83 0.84 0.85 0.86
1.54 1.60 1.62 1.74 1.69 1.71 1.77 1.76 1.82 2.03 2.21 2.05 1.94 2.00 1.95 1.72 1.60 1.40 1.26 1.27 1.12 1.17 1.20 1.13 1.07 1.01 0.94 0.94 0.93 0.87 0.80 0.74 0.71 0.72 0.77 0.81 0.85 0.88
1.65 1.65 1.66 1.73 1.79 1.87 1.90 1.99 2.13 2.30 2.45 2.37 2.29 2.33 2.32 2.14 1.92 1.59 1.48 1.40 1.28 1.15 1.23 1.21 1.17 1.11 1.02 0.94 0.90 0.89 0.86 0.83 0.79 0.76 0.76 0.79 0.83 0.87
1.64 1.65 1.60 1.66 1.73 1.83 1.83 1.99 2.24 2.45 2.62 2.66 2.65 2.77 2.68 2.49 2.19 1.84 1.75 1.66 1.53 1.34 1.25 1.15 1.12 1.06 1.03 1.02 0.97 0.95 0.92 0.90 0.89 0.88 0.87 0.84 0.82 0.82
1.74 1.75 1.69 1.63 1.60 1.63 1.71 1.82 1.97 2.17 2.43 2.63 2.72 2.79 2.82 2.68 2.47 2.22 1.90 1.64 1.51 1.38 1.36 1.28 1.17 1.12 1.03 0.96 1.06 1.02 0.96 0.93 0.91 0.90 0.91 0.93 0.93 0.92
1.70 1.70 1.56 1.45 1.49 1.42 1.53 1.58 1.59 1.68 1.81 2.05 2.27 2.32 2.50 2.58 2.48 2.16 1.85 1.60 1.41 1.38 1.40 1.33 1.25 1.17 1.08 1.05 1.14 1.02 0.95 0.92 0.89 0.87 0.90 0.92 0.94 0.95
1.47 1.51 1.52 1.43 1.42 1.48 1.47 1.39 1.27 1.28 1.37 1.40 1.52 1.77 2.02 2.29 2.35 2.23 2.14 1.86 1.58 1.38 1.32 1.29 1.17 1.10 1.05 1.02 1.12 1.04 0.97 0.94 0.91 0.89 0.86 0.86 0.87 0.89
1.51 1.51 1.52 1.40 1.46 1.38 1.33 1.31 1.24 1.19 1.21 1.25 1.31 1.50 1.77 1.97 2.16 2.16 2.07 1.96 1.72 1.44 1.30 1.27 1.16 1.14 1.11 1.03 1.02 1.05 0.99 0.97 0.96 0.91 0.87 0.84 0.83 0.84
1.53 1.54 1.57 1.44 1.49 1.41 1.37 1.40 1.31 1.23 1.22 1.20 1.22 1.28 1.36 1.61 1.87 1.87 1.82 1.84 1.72 1.51 1.26 1.25 1.19 1.18 1.21 1.02 0.86 0.84 0.85 0.93 0.95 0.90 0.86 0.82 0.81 0.71
1.47 1.44 1.50 1.50 1.34 1.23 1.15 1.16 1.21 1.21 1.21 1.18 1.15 1.17 1.23 1.33 1.52 1.62 1.67 1.63 1.56 1.39 1.19 1.21 1.21 1.17 1.11 0.99 0.87 0.80 0.76 0.76 0.78 0.82 0.86 0.87 0.84 0.69
1.33 1.32 1.33 1.29 1.12 0.99 0.87 0.85 0.88 0.85 0.92 1.01 1.03 1.03 1.06 1.13 1.29 1.52 1.66 1.64 1.50 1.37 1.29 1.27 1.21 1.17 1.10 0.98 0.88 0.80 0.77 0.71 0.66 0.63 0.67 0.88 0.93 0.90
1.13 1.31 1.31 1.17 1.08 1.01 0.95 0.85 0.76 0.69 0.77 0.86 0.84 0.85 0.88 0.97 1.13 1.43 1.68 1.83 1.71 1.44 1.30 1.25 1.21 1.16 1.10 0.94 0.76 0.68 0.68 0.67 0.62 0.60 0.62 0.70 0.77 0.84
1.13 1.27 1.35 1.33 1.24 1.15 1.05 0.88 0.72 0.70 0.72 0.76 0.81 0.83 0.91 1.00 1.10 1.18 1.41 1.62 1.69 1.52 1.29 1.20 1.15 1.16 1.09 0.92 0.80 0.68 0.61 0.61 0.60 0.63 0.67 0.69 0.72 0.79
1.24 1.36 1.48 1.50 1.46 1.35 1.19 1.03 0.91 0.86 0.82 0.80 0.88 0.90 0.94 0.96 0.99 1.03 1.20 1.35 1.37 1.28 1.21 1.19 1.21 1.21 1.21 1.13 0.92 0.71 0.62 0.56 0.54 0.64 0.75 0.76 0.72 0.74
1.04 1.23 1.50 1.57 1.58 1.55 1.43 1.24 1.09 1.00 0.95 0.93 0.94 0.95 0.95 0.99 1.02 1.07 1.15 1.27 1.28 1.18 1.14 1.12 1.22 1.32 1.28 1.19 0.97 0.77 0.66 0.61 0.58 0.67 0.74 0.76 0.72 0.72
0.74 0.94 1.24 1.46 1.55 1.58 1.50 1.31 1.14 1.09 1.10 1.05 1.01 0.99 0.99 1.01 1.09 1.13 1.16 1.23 1.29 1.24 1.16 1.18 1.25 1.31 1.24 1.03 0.86 0.75 0.74 0.70 0.73 0.74 0.74 0.75 0.71 0.67
0.59 0.76 1.01 1.28 1.39 1.44 1.43 1.37 1.27 1.22 1.20 1.15 1.11 1.08 1.06 1.07 1.07 1.11 1.15 1.18 1.22 1.28 1.21 1.17 1.19 1.17 1.14 1.07 0.98 0.86 0.80 0.84 0.89 0.86 0.79 0.82 0.82 0.83
0.75 0.81 0.95 1.18 1.34 1.43 1.46 1.43 1.37 1.33 1.30 1.29 1.24 1.21 1.18 1.21 1.17 1.11 1.15 1.24 1.27 1.31 1.22 1.03 1.00 1.16 1.31 1.42 1.28 0.98 0.85 0.87 0.96 1.01 0.96 0.99 0.98 0.97
0.97 0.97 1.02 1.17 1.33 1.45 1.48 1.43 1.43 1.41 1.42 1.39 1.34 1.30 1.25 1.26 1.26 1.24 1.26 1.30 1.25 1.22 1.22 1.17 1.23 1.35 1.39 1.36 1.20 1.08 0.99 0.95 1.02 1.06 1.02 0.97 0.96 0.88
1.14 1.09 1.11 1.21 1.29 1.40 1.40 1.36 1.37 1.42 1.41 1.38 1.35 1.33 1.28 1.25 1.25 1.27 1.27 1.30 1.29 1.28 1.34 1.40 1.41 1.38 1.32 1.30 1.24 1.19 1.14 1.08 1.07 1.05 0.96 0.91 0.79 0.71

GEFSNE_prec_meanprecacc_222.txt.gz
Total_Precipitation_Accumulation
1.20 1.39 1.33 1.20 1.21 1.20 1.31 1.50 1.59 1.39 1.26 1.25 1.27 1.29 1.48 1.56 1.69 1.58 1.42 1.47 1.34 1.18 1.08 1.02 1.05 1.12 1.19 1.24 1.33 1.43 1.54 1.63 1.75 1.97 2.29 2.64 2.96 3.27
1.36 1.48 1.46 1.34 1.35 1.33 1.34 1.46 1.68 1.66 1.47 1.30 1.34 1.31 1.36 1.25 1.41 1.31 1.33 1.44 1.30 1.20 1.16 1.12 1.08 1.09 1.10 1.15 1.19 1.17 1.18 1.19 1.21 1.27 1.39 1.57 1.80 2.10
1.36 1.39 1.39 1.48 1.53 1.51 1.60 1.62 1.68 1.81 1.67 1.38 1.42 1.53 1.51 1.36 1.31 1.28 1.25 1.25 1.22 1.25 1.19 1.16 1.11 1.05 0.99 0.96 1.00 1.03 1.01 1.01 1.01 1.01 1.04 1.08 1.10 1.17
1.41 1.55 1.48 1.52 1.59 1.63 1.77 1.73 1.77 2.00 1.97 1.73 1.68 1.75 1.63 1.54 1.45 1.36 1.20 1.14 1.15 1.27 1.19 1.12 1.05 0.98 0.93 0.89 0.87 0.86 0.86 0.85 0.85 0.85 0.85 0.85 0.86 0.87
1.60 1.67 1.69 1.81 1.74 1.76 1.81 1.80 1.86 2.08 2.25 2.08 1.95 2.02 1.97 1.73 1.61 1.41 1.27 1.28 1.13 1.17 1.21 1.14 1.08 1.02 0.96 0.96 0.95 0.90 0.82 0.77 0.72 0.74 0.79 0.83 0.87 0.89
1.77 1.78 1.79 1.82 1.86 1.94 1.95 2.04 2.17 2.35 2.50 2.40 2.31 2.35 2.34 2.16 1.93 1.60 1.49 1.41 1.29 1.16 1.24 1.22 1.18 1.12 1.04 0.96 0.92 0.91 0.88 0.84 0.81 0.78 0.78 0.81 0.86 0.89
1.74 1.78 1.74 1.77 1.82 1.90 1.88 2.04 2.30 2.51 2.66 2.70 2.67 2.80 2.70 2.52 2.22 1.87 1.78 1.69 1.56 1.36 1.27 1.16 1.13 1.07 1.05 1.03 0.99 0.96 0.94 0.93 0.92 0.92 0.90 0.87 0.85 0.84
1.81 1.82 1.76 1.70 1.66 1.68 1.75 1.86 2.02 2.23 2.48 2.68 2.75 2.83 2.86 2.71 2.51 2.26 1.93 1.68 1.54 1.41 1.40 1.31 1.19 1.14 1.05 0.98 1.07 1.04 0.98 0.95 0.94 0.94 0.96 0.97 0.97 0.96
1.76 1.75 1.60 1.49 1.51 1.45 1.57 1.62 1.62 1.71 1.84 2.10 2.31 2.37 2.54 2.63 2.53 2.20 1.90 1.65 1.46 1.43 1.45 1.37 1.28 1.19 1.09 1.07 1.16 1.03 0.97 0.94 0.91 0.91 0.94 0.97 1.00 1.01
1.51 1.55 1.56 1.47 1.47 1.52 1.52 1.44 1.31 1.32 1.41 1.44 1.56 1.81 2.06 2.34 2.40 2.28 2.19 1.91 1.62 1.41 1.35 1.31 1.19 1.12 1.07 1.05 1.14 1.06 0.99 0.96 0.93 0.91 0.89 0.88 0.90 0.92
1.53 1.54 1.54 1.43 1.49 1.42 1.37 1.36 1.28 1.23 1.25 1.29 1.35 1.55 1.81 2.02 2.20 2.19 2.11 1.99 1.75 1.46 1.32 1.29 1.19 1.16 1.15 1.07 1.05 1.07 1.00 0.99 0.99 0.96 0.91 0.88 0.88 0.90
1.56 1.57 1.60 1.47 1.52 1.45 1.41 1.44 1.34 1.26 1.24 1.23 1.25 1.32 1.39 1.64 1.89 1.89 1.85 1.87 1.74 1.53 1.28 1.26 1.21 1.21 1.24 1.04 0.88 0.86 0.87 0.95 0.98 0.94 0.91 0.87 0.86 0.75
1.50 1.48 1.53 1.54 1.39 1.28 1.21 1.20 1.25 1.26 1.26 1.21 1.18 1.19 1.25 1.35 1.55 1.64 1.69 1.65 1.58 1.41 1.21 1.23 1.23 1.19 1.13 1.01 0.89 0.82 0.78 0.78 0.80 0.84 0.89 0.91 0.88 0.72
1.37 1.35 1.37 1.33 1.16 1.03 0.91 0.88 0.92 0.90 0.96 1.04 1.06 1.05 1.08 1.15 1.30 1.54 1.68 1.66 1.52 1.39 1.32 1.28 1.23 1.18 1.12 1.00 0.89 0.82 0.79 0.73 0.67 0.64 0.68 0.90 0.95 0.93
1.15 1.35 1.34 1.21 1.11 1.04 0.98 0.88 0.79 0.73 0.80 0.88 0.86 0.87 0.90 0.99 1.14 1.44 1.69 1.85 1.74 1.47 1.32 1.27 1.23 1.18 1.12 0.95 0.78 0.69 0.70 0.68 0.63 0.62 0.64 0.72 0.79 0.86
1.15 1.30 1.37 1.35 1.27 1.18 1.07 0.90 0.74 0.73 0.75 0.80 0.84 0.85 0.93 1.01 1.12 1.19 1.43 1.63 1.71 1.54 1.31 1.22 1.17 1.18 1.11 0.94 0.82 0.70 0.62 0.62 0.61 0.64 0.69 0.70 0.74 0.81
1.27 1.38 1.50 1.52 1.48 1.37 1.21 1.05 0.93 0.88 0.84 0.83 0.91 0.93 0.95 0.98 1.00 1.05 1.21 1.37 1.38 1.29 1.23 1.21 1.23 1.23 1.23 1.15 0.94 0.73 0.64 0.57 0.55 0.65 0.76 0.77 0.73 0.75
1.07 1.25 1.52 1.59 1.60 1.57 1.45 1.26 1.11 1.02 0.97 0.95 0.97 0.97 0.97 1.01 1.04 1.09 1.17 1.29 1.30 1.20 1.16 1.14 1.24 1.34 1.31 1.21 0.99 0.79 0.68 0.62 0.60 0.68 0.75 0.76 0.72 0.73
0.77 0.96 1.26 1.48 1.57 1.60 1.52 1.33 1.15 1.10 1.12 1.07 1.03 1.02 1.02 1.04 1.11 1.15 1.19 1.26 1.31 1.26 1.19 1.21 1.27 1.33 1.27 1.06 0.87 0.76 0.75 0.72 0.75 0.75 0.75 0.76 0.72 0.68
0.62 0.78 1.04 1.31 1.42 1.47 1.46 1.39 1.28 1.24 1.22 1.17 1.13 1.10 1.08 1.10 1.10 1.13 1.17 1.21 1.25 1.31 1.25 1.22 1.23 1.22 1.18 1.10 1.01 0.88 0.81 0.86 0.91 0.87 0.80 0.83 0.83 0.84
0.78 0.84 0.99 1.22 1.38 1.48 1.50 1.47 1.39 1.35 1.32 1.31 1.26 1.23 1.21 1.24 1.20 1.14 1.17 1.26 1.29 1.33 1.25 1.05 1.03 1.19 1.34 1.47 1.33 1.02 0.88 0.89 0.97 1.02 0.97 1.00 1.00 0.98
1.01 1.01 1.06 1.20 1.37 1.49 1.52 1.46 1.46 1.43 1.44 1.41 1.36 1.32 1.27 1.29 1.29 1.27 1.28 1.32 1.27 1.24 1.24 1.18 1.25 1.38 1.41 1.38 1.22 1.10 1.02 0.97 1.04 1.08 1.04 0.98 0.96 0.89
1.20 1.14 1.16 1.25 1.33 1.44 1.44 1.40 1.40 1.45 1.43 1.40 1.36 1.35 1.30 1.26 1.27 1.30 1.29 1.33 1.32 1.30 1.37 1.42 1.43 1.40 1.34 1.32 1.26 1.21 1.17 1.11 1.10 1.07 0.98 0.92 0.80 0.71

GEFSNE_prec_meanprecacc_228.txt.gz
Total_Precipitation_Accumulation
1.26 1.45 1.40 1.26 1.26 1.23 1.34 1.55 1.66 1.46 1.33 1.29 1.29 1.31 1.50 1.59 1.74 1.61 1.44 1.49 1.35 1.19 1.08 1.02 1.05 1.12 1.20 1.25 1.34 1.44 1.55 1.64 1.76 1.98 2.31 2.67 3.01 3.33
1.41 1.55 1.52 1.40 1.41 1.37 1.38 1.51 1.73 1.71 1.52 1.32 1.36 1.32 1.37 1.27 1.45 1.34 1.36 1.47 1.32 1.22 1.17 1.12 1.08 1.09 1.10 1.16 1.19 1.18 1.18 1.20 1.22 1.29 1.40 1.58 1.82 2.14
1.42 1.46 1.46 1.56 1.61 1.59 1.67 1.69 1.75 1.87 1.72 1.41 1.44 1.55 1.53 1.37 1.34 1.30 1.27 1.27 1.23 1.27 1.20 1.17 1.12 1.06 0.99 0.96 1.01 1.04 1.02 1.02 1.02 1.03 1.05 1.09 1.11 1.18
1.48 1.62 1.56 1.60 1.68 1.73 1.85 1.79 1.84 2.06 2.03 1.77 1.72 1.79 1.66 1.55 1.48 1.39 1.21 1.16 1.17 1.30 1.21 1.14 1.06 0.98 0.93 0.90 0.87 0.87 0.87 0.86 0.87 0.87 0.87 0.87 0.88 0.88
1.69 1.77 1.80 1.94 1.85 1.86 1.91 1.88 1.93 2.14 2.32 2.14 1.99 2.07 2.01 1.77 1.65 1.44 1.29 1.30 1.14 1.19 1.23 1.15 1.09 1.03 0.96 0.96 0.96 0.90 0.83 0.78 0.74 0.75 0.80 0.84 0.88 0.91
1.86 1.88 1.90 1.94 1.98 2.07 2.07 2.15 2.28 2.44 2.58 2.46 2.35 2.41 2.39 2.20 1.97 1.64 1.53 1.45 1.33 1.19 1.26 1.24 1.19 1.13 1.04 0.97 0.93 0.92 0.89 0.86 0.82 0.79 0.79 0.82 0.86 0.90
1.82 1.86 1.82 1.89 1.93 2.03 2.01 2.17 2.42 2.61 2.73 2.75 2.72 2.86 2.76 2.57 2.25 1.92 1.83 1.74 1.61 1.41 1.32 1.21 1.18 1.12 1.09 1.06 1.01 0.98 0.96 0.94 0.93 0.94 0.93 0.89 0.87 0.86
1.88 1.89 1.85 1.81 1.75 1.78 1.84 1.94 2.10 2.30 2.55 2.75 2.82 2.90 2.92 2.78 2.58 2.32 2.00 1.75 1.60 1.47 1.47 1.37 1.25 1.19 1.08 0.99 1.09 1.05 0.99 0.97 0.96 0.96 0.97 0.99 0.99 0.98
1.84 1.85 1.68 1.57 1.59 1.52 1.63 1.67 1.66 1.75 1.89 2.16 2.37 2.43 2.63 2.74 2.63 2.29 1.98 1.73 1.54 1.49 1.52 1.43 1.33 1.23 1.11 1.08 1.17 1.05 0.99 0.96 0.93 0.92 0.95 0.97 1.00 1.02
1.60 1.64 1.65 1.56 1.53 1.59 1.58 1.47 1.35 1.35 1.45 1.48 1.60 1.85 2.12 2.42 2.50 2.37 2.29 2.00 1.71 1.49 1.44 1.40 1.25 1.16 1.10 1.07 1.16 1.08 1.01 0.97 0.94 0.91 0.89 0.89 0.90 0.93
1.60 1.60 1.61 1.48 1.53 1.47 1.42 1.40 1.31 1.26 1.28 1.33 1.39 1.58 1.87 2.09 2.29 2.29 2.21 2.08 1.82 1.53 1.38 1.35 1.23 1.20 1.18 1.09 1.07 1.09 1.01 1.00 0.99 0.96 0.92 0.89 0.89 0.91
1.61 1.63 1.66 1.51 1.56 1.48 1.44 1.48 1.38 1.29 1.29 1.27 1.30 1.36 1.44 1.71 1.99 2.00 1.95 1.96 1.81 1.58 1.33 1.31 1.24 1.24 1.27 1.07 0.90 0.87 0.88 0.95 0.98 0.94 0.91 0.88 0.87 0.76
1.54 1.51 1.56 1.57 1.42 1.32 1.24 1.24 1.29 1.32 1.33 1.27 1.23 1.24 1.29 1.40 1.59 1.69 1.74 1.71 1.63 1.46 1.26 1.29 1.28 1.23 1.16 1.04 0.92 0.84 0.79 0.79 0.81 0.85 0.89 0.92 0.89 0.73
1.39 1.39 1.40 1.36 1.19 1.07 0.94 0.91 0.96 0.95 1.02 1.10 1.12 1.09 1.12 1.19 1.33 1.57 1.71 1.70 1.56 1.43 1.37 1.35 1.28 1.23 1.16 1.04 0.93 0.85 0.81 0.74 0.68 0.65 0.69 0.90 0.96 0.94
1.17 1.38 1.38 1.25 1.14 1.07 1.01 0.90 0.82 0.76 0.84 0.93 0.91 0.92 0.96 1.05 1.20 1.49 1.73 1.89 1.78 1.51 1.37 1.33 1.29 1.24 1.17 0.99 0.81 0.72 0.72 0.70 0.64 0.63 0.65 0.73 0.80 0.86
1.20 1.35 1.41 1.38 1.29 1.20 1.10 0.93 0.77 0.75 0.78 0.84 0.88 0.90 0.98 1.07 1.18 1.28 1.51 1.71 1.78 1.61 1.37 1.27 1.22 1.23 1.15 0.98 0.84 0.72 0.65 0.64 0.63 0.66 0.71 0.72 0.76 0.82
1.32 1.42 1.54 1.55 1.51 1.40 1.24 1.08 0.95 0.91 0.87 0.86 0.95 0.97 0.99 1.02 1.04 1.08 1.25 1.41 1.42 1.34 1.26 1.24 1.26 1.27 1.27 1.18 0.98 0.75 0.66 0.60 0.58 0.67 0.78 0.79 0.75 0.77
1.12 1.30 1.57 1.63 1.63 1.60 1.48 1.29 1.14 1.05 0.99 0.98 1.00 1.00 1.00 1.04 1.06 1.12 1.19 1.32 1.33 1.23 1.19 1.16 1.26 1.38 1.35 1.25 1.02 0.83 0.71 0.65 0.63 0.71 0.77 0.78 0.74 0.74
0.81 1.01 1.31 1.52 1.60 1.62 1.54 1.36 1.18 1.14 1.15 1.10 1.07 1.04 1.04 1.06 1.13 1.17 1.21 1.29 1.34 1.29 1.21 1.24 1.31 1.38 1.32 1.10 0.90 0.79 0.78 0.76 0.79 0.79 0.78 0.78 0.74 0.69
0.66 0.83 1.08 1.34 1.45 1.51 1.49 1.43 1.32 1.27 1.26 1.21 1.17 1.14 1.12 1.13 1.12 1.15 1.19 1.23 1.27 1.34 1.29 1.25 1.27 1.26 1.22 1.14 1.04 0.91 0.84 0.89 0.94 0.91 0.84 0.86 0.85 0.87
0.83 0.87 1.02 1.24 1.41 1.52 1.55 1.52 1.45 1.40 1.37 1.36 1.31 1.28 1.25 1.28 1.23 1.16 1.19 1.28 1.31 1.36 1.28 1.08 1.05 1.22 1.37 1.50 1.36 1.05 0.90 0.91 1.00 1.04 0.99 1.03 1.02 1.01
1.06 1.05 1.10 1.24 1.40 1.54 1.57 1.52 1.52 1.49 1.49 1.46 1.41 1.36 1.31 1.32 1.32 1.29 1.31 1.34 1.29 1.26 1.25 1.20 1.26 1.40 1.45 1.42 1.26 1.13 1.04 1.00 1.07 1.11 1.07 1.01 0.99 0.91
1.25 1.19 1.20 1.28 1.37 1.47 1.48 1.44 1.44 1.50 1.48 1.45 1.42 1.40 1.35 1.31 1.30 1.33 1.32 1.35 1.34 1.32 1.39 1.44 1.45 1.43 1.37 1.36 1.30 1.24 1.20 1.15 1.14 1.11 1.00 0.95 0.83 0.74

GEFSNE_prec_meanprecacc_234.txt.gz
Total_Precipitation_Accumulation
1.28 1.48 1.43 1.28 1.29 1.26 1.39 1.60 1.73 1.52 1.37 1.32 1.31 1.33 1.52 1.62 1.77 1.66 1.50 1.55 1.40 1.23 1.12 1.07 1.10 1.16 1.21 1.27 1.36 1.46 1.58 1.66 1.78 2.00 2.33 2.68 3.02 3.35
1.44 1.57 1.56 1.44 1.45 1.41 1.44 1.59 1.81 1.79 1.57 1.36 1.39 1.36 1.41 1.30 1.48 1.38 1.41 1.54 1.39 1.27 1.22 1.15 1.11 1.11 1.12 1.17 1.21 1.19 1.20 1.22 1.24 1.30 1.42 1.60 1.84 2.15
1.45 1.50 1.50 1.62 1.66 1.63 1.73 1.76 1.83 1.97 1.79 1.46 1.50 1.60 1.58 1.41 1.37 1.33 1.31 1.32 1.27 1.30 1.23 1.20 1.15 1.08 1.01 0.97 1.02 1.05 1.03 1.03 1.03 1.04 1.07 1.11 1.13 1.20
1.51 1.67 1.60 1.65 1.73 1.80 1.94 1.86 1.91 2.15 2.10 1.83 1.79 1.86 1.71 1.60 1.54 1.45 1.27 1.20 1.20 1.33 1.24 1.16 1.08 1.01 0.96 0.92 0.89 0.88 0.89 0.89 0.89 0.89 0.89 0.88 0.89 0.90
1.72 1.81 1.84 1.98 1.90 1.92 1.97 1.95 2.00 2.22 2.40 2.20 2.05 2.13 2.05 1.81 1.71 1.50 1.35 1.36 1.20 1.25 1.27 1.18 1.11 1.06 0.99 0.99 0.98 0.93 0.85 0.80 0.76 0.78 0.83 0.86 0.90 0.92
1.89 1.91 1.93 1.98 2.03 2.13 2.13 2.22 2.36 2.53 2.67 2.54 2.42 2.47 2.45 2.25 2.03 1.68 1.56 1.48 1.37 1.27 1.34 1.28 1.23 1.17 1.09 1.02 0.97 0.95 0.93 0.89 0.85 0.81 0.81 0.84 0.88 0.91
1.84 1.88 1.85 1.93 1.99 2.09 2.06 2.23 2.50 2.70 2.83 2.84 2.79 2.92 2.82 2.63 2.30 1.96 1.88 1.78 1.65 1.46 1.39 1.29 1.26 1.18 1.14 1.11 1.06 1.01 0.99 0.97 0.95 0.95 0.94 0.90 0.88 0.88
1.91 1.92 1.89 1.86 1.79 1.82 1.89 2.00 2.16 2.37 2.60 2.80 2.87 2.94 2.96 2.83 2.62 2.36 2.05 1.80 1.65 1.52 1.55 1.44 1.33 1.26 1.13 1.05 1.14 1.09 1.03 0.99 0.98 0.97 0.99 1.00 1.00 0.99
1.89 1.89 1.73 1.61 1.64 1.56 1.69 1.73 1.72 1.79 1.93 2.19 2.41 2.46 2.66 2.77 2.67 2.33 2.02 1.78 1.59 1.55 1.59 1.50 1.40 1.30 1.20 1.15 1.23 1.09 1.03 0.99 0.96 0.95 0.97 0.99 1.01 1.03
1.66 1.70 1.71 1.62 1.60 1.67 1.66 1.55 1.40 1.39 1.49 1.52 1.64 1.88 2.14 2.46 2.54 2.42 2.34 2.05 1.77 1.55 1.52 1.48 1.33 1.24 1.16 1.13 1.22 1.12 1.03 0.99 0.96 0.93 0.91 0.90 0.91 0.94
1.64 1.65 1.65 1.52 1.59 1.53 1.49 1.48 1.39 1.32 1.34 1.38 1.43 1.62 1.90 2.13 2.34 2.34 2.25 2.13 1.87 1.58 1.44 1.40 1.29 1.27 1.23 1.14 1.12 1.14 1.05 1.03 1.01 0.97 0.93 0.90 0.90 0.92
1.68 1.69 1.71 1.56 1.61 1.56 1.52 1.54 1.45 1.36 1.35 1.32 1.35 1.41 1.48 1.75 2.03 2.04 1.99 2.00 1.84 1.61 1.36 1.36 1.29 1.29 1.31 1.10 0.93 0.90 0.91 0.99 1.01 0.96 0.93 0.89 0.88 0.77
1.58 1.55 1.59 1.61 1.46 1.36 1.31 1.30 1.37 1.40 1.41 1.35 1.29 1.29 1.34 1.44 1.63 1.73 1.78 1.76 1.67 1.48 1.28 1.32 1.31 1.26 1.19 1.06 0.94 0.87 0.82 0.81 0.83 0.87 0.91 0.94 0.90 0.74
1.42 1.41 1.42 1.39 1.21 1.09 0.97 0.96 1.02 1.02 1.08 1.17 1.17 1.13 1.16 1.23 1.38 1.62 1.76 1.74 1.61 1.47 1.41 1.38 1.31 1.26 1.19 1.07 0.95 0.87 0.83 0.77 0.70 0.67 0.70 0.92 0.97 0.96
1.19 1.39 1.40 1.26 1.15 1.08 1.03 0.95 0.86 0.80 0.88 0.97 0.93 0.94 0.99 1.09 1.25 1.54 1.77 1.93 1.82 1.56 1.42 1.37 1.33 1.28 1.22 1.03 0.85 0.76 0.76 0.73 0.67 0.65 0.66 0.74 0.81 0.87
1.21 1.36 1.42 1.39 1.31 1.22 1.12 0.96 0.80 0.78 0.80 0.86 0.90 0.92 1.01 1.11 1.23 1.32 1.56 1.76 1.84 1.67 1.43 1.33 1.27 1.28 1.20 1.04 0.91 0.77 0.69 0.68 0.66 0.69 0.73 0.73 0.76 0.83
1.33 1.44 1.56 1.58 1.54 1.42 1.26 1.10 0.97 0.92 0.88 0.88 0.97 0.99 1.02 1.05 1.07 1.12 1.29 1.45 1.47 1.38 1.30 1.29 1.30 1.31 1.31 1.23 1.02 0.80 0.71 0.63 0.61 0.70 0.81 0.81 0.76 0.77
1.15 1.33 1.60 1.67 1.66 1.63 1.50 1.31 1.16 1.07 1.01 1.00 1.02 1.03 1.03 1.07 1.10 1.15 1.23 1.35 1.36 1.26 1.22 1.19 1.29 1.41 1.38 1.28 1.04 0.85 0.73 0.67 0.65 0.74 0.80 0.80 0.75 0.75
0.86 1.06 1.36 1.57 1.64 1.65 1.56 1.38 1.20 1.15 1.17 1.13 1.09 1.07 1.08 1.10 1.18 1.21 1.25 1.32 1.37 1.32 1.24 1.27 1.34 1.41 1.36 1.13 0.93 0.81 0.80 0.77 0.81 0.82 0.81 0.80 0.75 0.70
0.73 0.89 1.13 1.38 1.49 1.55 1.53 1.47 1.35 1.30 1.28 1.24 1.20 1.18 1.17 1.18 1.17 1.19 1.23 1.26 1.30 1.37 1.32 1.29 1.30 1.28 1.24 1.17 1.07 0.93 0.86 0.91 0.96 0.93 0.86 0.88 0.87 0.88
0.89 0.92 1.06 1.27 1.44 1.55 1.59 1.57 1.50 1.44 1.41 1.41 1.37 1.33 1.31 1.34 1.29 1.21 1.24 1.32 1.35 1.39 1.30 1.10 1.08 1.25 1.41 1.55 1.40 1.08 0.93 0.93 1.02 1.07 1.02 1.06 1.05 1.03
1.10 1.09 1.13 1.27 1.44 1.57 1.61 1.57 1.60 1.56 1.54 1.52 1.48 1.43 1.39 1.39 1.38 1.36 1.37 1.40 1.33 1.29 1.28 1.22 1.30 1.45 1.49 1.46 1.29 1.15 1.07 1.02 1.09 1.13 1.09 1.04 1.01 0.94
1.30 1.24 1.25 1.33 1.42 1.52 1.53 1.49 1.50 1.55 1.54 1.51 1.47 1.45 1.40 1.37 1.37 1.40 1.39 1.41 1.39 1.36 1.42 1.48 1.49 1.47 1.42 1.40 1.34 1.29 1.24 1.19 1.17 1.14 1.03 0.97 0.85 0.76

GEFSNE_prec_meanprecacc_240.txt.gz
Total_Precipitation_Accumulation
1.32 1.51 1.45 1.31 1.33 1.29 1.42 1.63 1.75 1.53 1.37 1.33 1.32 1.35 1.54 1.63 1.78 1.68 1.51 1.57 1.42 1.26 1.15 1.11 1.15 1.23 1.29 1.33 1.42 1.52 1.64 1.71 1.83 2.04 2.36 2.72 3.06 3.39
1.47 1.60 1.59 1.48 1.48 1.43 1.47 1.62 1.84 1.81 1.58 1.36 1.40 1.37 1.43 1.33 1.51 1.40 1.43 1.56 1.41 1.30 1.25 1.20 1.15 1.16 1.17 1.23 1.26 1.24 1.24 1.26 1.27 1.33 1.45 1.64 1.88 2.19
1.48 1.53 1.53 1.64 1.67 1.65 1.75 1.78 1.86 1.99 1.80 1.47 1.51 1.62 1.61 1.44 1.41 1.37 1.35 1.35 1.31 1.33 1.27 1.23 1.17 1.11 1.05 1.00 1.05 1.07 1.06 1.07 1.07 1.08 1.11 1.15 1.18 1.25
1.54 1.70 1.63 1.67 1.74 1.82 1.96 1.88 1.92 2.17 2.13 1.85 1.80 1.87 1.74 1.64 1.60 1.50 1.31 1.24 1.23 1.36 1.27 1.19 1.10 1.03 0.99 0.94 0.92 0.91 0.91 0.91 0.92 0.93 0.94 0.94 0.94 0.95
1.74 1.82 1.85 2.00 1.91 1.95 2.00 1.97 2.02 2.24 2.43 2.24 2.07 2.15 2.08 1.85 1.77 1.56 1.39 1.39 1.23 1.28 1.30 1.20 1.13 1.09 1.02 1.02 1.01 0.95 0.88 0.82 0.78 0.80 0.86 0.89 0.93 0.95
1.91 1.93 1.94 2.00 2.05 2.16 2.17 2.25 2.39 2.56 2.70 2.58 2.45 2.52 2.52 2.33 2.10 1.75 1.61 1.51 1.40 1.30 1.38 1.32 1.27 1.21 1.12 1.04 1.00 0.99 0.96 0.91 0.86 0.82 0.83 0.86 0.91 0.94
1.87 1.91 1.88 1.97 2.02 2.12 2.09 2.26 2.55 2.74 2.87 2.88 2.83 2.98 2.91 2.73 2.39 2.02 1.92 1.81 1.68 1.48 1.42 1.33 1.30 1.22 1.18 1.14 1.09 1.05 1.02 0.99 0.97 0.97 0.96 0.94 0.92 0.91
1.93 1.95 1.93 1.90 1.83 1.86 1.93 2.04 2.21 2.41 2.63 2.83 2.90 2.97 3.01 2.88 2.66 2.41 2.08 1.84 1.68 1.55 1.58 1.48 1.37 1.29 1.16 1.08 1.18 1.13 1.07 1.03 1.01 1.01 1.02 1.03 1.03 1.03
1.93 1.93 1.76 1.64 1.67 1.60 1.73 1.78 1.77 1.84 1.97 2.23 2.44 2.48 2.69 2.81 2.71 2.36 2.06 1.81 1.62 1.58 1.62 1.53 1.43 1.34 1.23 1.19 1.27 1.14 1.08 1.04 1.00 0.98 1.00 1.01 1.03 1.05
1.71 1.74 1.74 1.64 1.62 1.69 1.69 1.59 1.45 1.44 1.54 1.57 1.68 1.91 2.17 2.49 2.59 2.46 2.38 2.10 1.80 1.58 1.54 1.50 1.36 1.27 1.19 1.16 1.27 1.17 1.08 1.05 1.02 0.99 0.95 0.93 0.94 0.96
1.68 1.68 1.68 1.54 1.62 1.57 1.52 1.53 1.45 1.38 1.40 1.44 1.49 1.68 1.95 2.18 2.40 2.41 2.30 2.18 1.92 1.62 1.48 1.44 1.33 1.30 1.26 1.17 1.15 1.18 1.09 1.07 1.06 1.04 1.00 0.97 0.95 0.95
1.73 1.74 1.76 1.60 1.66 1.60 1.57 1.59 1.50 1.42 1.41 1.39 1.42 1.48 1.55 1.82 2.11 2.09 2.04 2.06 1.89 1.66 1.40 1.40 1.33 1.33 1.34 1.12 0.95 0.93 0.94 1.02 1.05 1.00 0.97 0.95 0.95 0.83
1.64 1.60 1.65 1.66 1.51 1.41 1.36 1.35 1.41 1.44 1.45 1.39 1.35 1.35 1.41 1.51 1.70 1.80 1.85 1.82 1.73 1.54 1.33 1.37 1.35 1.30 1.23 1.09 0.96 0.89 0.84 0.83 0.86 0.90 0.94 0.97 0.95 0.80
1.45 1.43 1.43 1.40 1.23 1.11 1.00 0.98 1.05 1.05 1.11 1.21 1.21 1.17 1.20 1.27 1.43 1.68 1.84 1.84 1.70 1.55 1.48 1.45 1.37 1.31 1.25 1.12 0.98 0.90 0.86 0.80 0.74 0.70 0.74 0.96 1.01 0.99
1.20 1.40 1.40 1.27 1.16 1.09 1.04 0.96 0.88 0.81 0.89 0.99 0.95 0.96 1.02 1.12 1.28 1.57 1.82 1.99 1.89 1.63 1.49 1.45 1.40 1.34 1.28 1.08 0.88 0.79 0.79 0.77 0.72 0.70 0.71 0.78 0.84 0.91
1.22 1.37 1.43 1.40 1.31 1.23 1.13 0.97 0.80 0.79 0.82 0.87 0.91 0.93 1.03 1.13 1.24 1.34 1.58 1.79 1.88 1.72 1.49 1.40 1.35 1.35 1.25 1.06 0.93 0.80 0.72 0.71 0.71 0.75 0.79 0.79 0.82 0.87
1.36 1.46 1.57 1.59 1.55 1.43 1.27 1.11 0.98 0.93 0.89 0.89 0.98 1.00 1.03 1.06 1.09 1.14 1.32 1.48 1.49 1.40 1.34 1.34 1.36 1.36 1.34 1.25 1.04 0.81 0.73 0.66 0.64 0.76 0.88 0.88 0.82 0.83
1.20 1.36 1.63 1.69 1.69 1.66 1.53 1.34 1.18 1.08 1.03 1.01 1.04 1.04 1.04 1.09 1.12 1.18 1.25 1.37 1.38 1.28 1.25 1.23 1.35 1.46 1.42 1.31 1.07 0.87 0.75 0.69 0.67 0.77 0.85 0.86 0.81 0.80
0.93 1.11 1.40 1.61 1.69 1.71 1.62 1.42 1.23 1.19 1.21 1.15 1.11 1.09 1.09 1.12 1.20 1.24 1.27 1.34 1.39 1.34 1.26 1.30 1.38 1.45 1.39 1.16 0.96 0.85 0.84 0.81 0.84 0.84 0.83 0.83 0.79 0.75
0.81 0.97 1.22 1.47 1.56 1.61 1.59 1.51 1.39 1.34 1.32 1.28 1.24 1.21 1.19 1.21 1.20 1.22 1.25 1.29 1.33 1.40 1.34 1.32 1.33 1.32 1.28 1.20 1.10 0.97 0.91 0.96 1.01 0.97 0.89 0.90 0.90 0.92
0.96 0.99 1.12 1.33 1.50 1.60 1.63 1.62 1.56 1.50 1.46 1.45 1.40 1.36 1.34 1.38 1.33 1.25 1.26 1.35 1.38 1.41 1.33 1.13 1.11 1.29 1.45 1.60 1.46 1.12 0.97 0.99 1.08 1.12 1.06 1.09 1.08 1.06
1.16 1.14 1.18 1.32 1.48 1.62 1.65 1.62 1.65 1.62 1.59 1.57 1.52 1.47 1.42 1.43 1.41 1.39 1.40 1.43 1.36 1.32 1.31 1.25 1.33 1.48 1.53 1.51 1.35 1.21 1.12 1.07 1.13 1.19 1.15 1.09 1.05 0.97
1.36 1.31 1.32 1.40 1.49 1.58 1.58 1.54 1.55 1.61 1.59 1.55 1.51 1.49 1.44 1.40 1.40 1.44 1.44 1.47 1.44 1.41 1.47 1.52 1.51 1.49 1.44 1.42 1.37 1.33 1.30 1.24 1.22 1.18 1.06 1.02 0.89 0.81

GEFSNE_prec_meanprecacc_246.txt.gz
Total_Precipitation_Accumulation
1.39 1.58 1.51 1.36 1.37 1.33 1.46 1.68 1.79 1.57 1.41 1.34 1.33 1.35 1.54 1.64 1.80 1.69 1.52 1.59 1.43 1.27 1.18 1.14 1.17 1.25 1.32 1.36 1.45 1.55 1.68 1.77 1.88 2.08 2.40 2.75 3.10 3.44
1.50 1.64 1.62 1.51 1.52 1.47 1.50 1.66 1.88 1.85 1.61 1.37 1.41 1.38 1.44 1.34 1.52 1.42 1.44 1.59 1.44 1.33 1.28 1.23 1.18 1.19 1.20 1.25 1.29 1.27 1.28 1.30 1.30 1.36 1.47 1.66 1.91 2.23
1.50 1.55 1.56 1.68 1.71 1.68 1.78 1.82 1.91 2.03 1.83 1.49 1.53 1.64 1.62 1.46 1.43 1.39 1.37 1.38 1.33 1.36 1.30 1.27 1.20 1.14 1.07 1.02 1.07 1.11 1.09 1.09 1.09 1.10 1.12 1.17 1.20 1.29
1.57 1.72 1.65 1.70 1.77 1.85 1.99 1.91 1.97 2.22 2.17 1.88 1.83 1.90 1.76 1.66 1.62 1.54 1.35 1.27 1.26 1.39 1.30 1.22 1.13 1.06 1.01 0.96 0.94 0.93 0.94 0.93 0.93 0.94 0.94 0.95 0.95 0.97
1.76 1.84 1.87 2.03 1.94 1.98 2.03 1.99 2.05 2.28 2.47 2.27 2.09 2.17 2.10 1.88 1.80 1.62 1.49 1.49 1.29 1.32 1.34 1.24 1.16 1.11 1.05 1.04 1.02 0.97 0.90 0.84 0.80 0.82 0.87 0.90 0.94 0.96
1.93 1.96 1.97 2.03 2.08 2.19 2.20 2.27 2.43 2.61 2.75 2.61 2.48 2.55 2.55 2.37 2.15 1.82 1.70 1.60 1.47 1.34 1.41 1.34 1.29 1.24 1.14 1.06 1.02 1.00 0.98 0.93 0.89 0.84 0.84 0.87 0.91 0.95
1.90 1.95 1.91 2.00 2.06 2.16 2.13 2.31 2.60 2.78 2.91 2.92 2.86 3.00 2.94 2.79 2.44 2.08 1.97 1.86 1.71 1.50 1.43 1.34 1.31 1.23 1.19 1.17 1.11 1.07 1.04 1.01 1.00 1.00 0.98 0.95 0.93 0.92
1.97 1.99 1.96 1.93 1.86 1.90 1.98 2.09 2.26 2.46 2.68 2.87 2.94 3.01 3.04 2.93 2.72 2.46 2.13 1.87 1.71 1.57 1.59 1.49 1.38 1.30 1.18 1.10 1.20 1.16 1.09 1.06 1.04 1.03 1.04 1.05 1.05 1.04
1.97 1.98 1.81 1.69 1.71 1.63 1.77 1.83 1.82 1.88 2.01 2.28 2.49 2.53 2.74 2.86 2.77 2.42 2.10 1.85 1.66 1.62 1.66 1.56 1.46 1.36 1.24 1.21 1.28 1.15 1.10 1.07 1.03 1.01 1.02 1.03 1.05 1.07
1.75 1.78 1.77 1.68 1.66 1.74 1.74 1.62 1.48 1.47 1.58 1.60 1.71 1.96 2.23 2.56 2.65 2.52 2.45 2.16 1.86 1.64 1.59 1.55 1.40 1.30 1.22 1.18 1.28 1.18 1.09 1.06 1.04 1.02 0.98 0.96 0.96 0.99
1.70 1.70 1.70 1.57 1.66 1.62 1.57 1.57 1.48 1.40 1.43 1.47 1.53 1.73 2.00 2.24 2.45 2.48 2.37 2.27 2.00 1.68 1.55 1.50 1.38 1.35 1.30 1.19 1.17 1.19 1.11 1.09 1.07 1.05 1.01 0.98 0.97 0.98
1.76 1.77 1.79 1.63 1.68 1.63 1.59 1.63 1.54 1.46 1.46 1.44 1.47 1.53 1.60 1.89 2.18 2.19 2.15 2.17 2.01 1.77 1.50 1.49 1.40 1.39 1.38 1.15 0.98 0.95 0.96 1.04 1.07 1.02 0.99 0.97 0.97 0.86
1.67 1.63 1.66 1.68 1.52 1.43 1.38 1.38 1.45 1.47 1.48 1.43 1.37 1.38 1.44 1.56 1.76 1.86 1.93 1.92 1.83 1.63 1.41 1.45 1.42 1.37 1.30 1.15 1.01 0.94 0.88 0.86 0.89 0.92 0.96 0.99 0.98 0.84
1.48 1.46 1.46 1.42 1.24 1.13 1.01 0.99 1.06 1.06 1.13 1.22 1.23 1.20 1.23 1.30 1.46 1.71 1.87 1.89 1.77 1.63 1.57 1.52 1.44 1.39 1.34 1.21 1.06 0.96 0.91 0.85 0.78 0.73 0.76 0.98 1.03 1.03
1.23 1.43 1.43 1.29 1.18 1.10 1.05 0.97 0.89 0.82 0.90 1.00 0.97 0.98 1.03 1.14 1.30 1.60 1.85 2.03 1.93 1.68 1.56 1.51 1.46 1.42 1.37 1.17 0.96 0.86 0.86 0.82 0.76 0.73 0.74 0.80 0.86 0.93
1.24 1.39 1.45 1.42 1.34 1.25 1.15 0.98 0.82 0.80 0.83 0.88 0.93 0.95 1.05 1.15 1.26 1.36 1.61 1.82 1.92 1.76 1.52 1.46 1.43 1.43 1.33 1.15 1.01 0.87 0.78 0.76 0.74 0.77 0.81 0.82 0.84 0.89
1.40 1.49 1.60 1.62 1.58 1.46 1.30 1.14 1.01 0.96 0.93 0.92 1.00 1.02 1.05 1.08 1.10 1.16 1.35 1.52 1.53 1.43 1.37 1.37 1.42 1.44 1.43 1.35 1.13 0.89 0.78 0.70 0.67 0.79 0.91 0.91 0.85 0.85
1.26 1.40 1.67 1.74 1.74 1.71 1.58 1.39 1.24 1.13 1.08 1.06 1.07 1.07 1.07 1.12 1.16 1.21 1.29 1.41 1.41 1.32 1.28 1.27 1.39 1.51 1.48 1.37 1.13 0.92 0.79 0.73 0.71 0.81 0.89 0.90 0.84 0.82
1.00 1.17 1.46 1.68 1.76 1.78 1.70 1.49 1.30 1.25 1.27 1.22 1.17 1.14 1.14 1.16 1.24 1.28 1.31 1.39 1.44 1.39 1.31 1.34 1.43 1.50 1.44 1.20 0.99 0.88 0.88 0.85 0.89 0.89 0.88 0.87 0.82 0.78
0.91 1.07 1.33 1.57 1.68 1.73 1.69 1.60 1.46 1.41 1.39 1.34 1.29 1.25 1.24 1.26 1.25 1.27 1.31 1.34 1.38 1.44 1.38 1.35 1.37 1.36 1.32 1.23 1.14 1.00 0.94 1.00 1.05 1.01 0.94 0.96 0.94 0.96
1.07 1.10 1.23 1.43 1.60 1.70 1.71 1.68 1.61 1.55 1.51 1.51 1.45 1.40 1.38 1.42 1.38 1.29 1.31 1.40 1.42 1.45 1.36 1.17 1.14 1.32 1.49 1.65 1.50 1.16 1.00 1.02 1.13 1.19 1.14 1.18 1.16 1.12
1.22 1.20 1.24 1.38 1.55 1.69 1.72 1.69 1.72 1.67 1.64 1.61 1.56 1.51 1.47 1.48 1.47 1.43 1.44 1.47 1.41 1.37 1.35 1.29 1.36 1.51 1.57 1.57 1.40 1.26 1.16 1.12 1.18 1.25 1.22 1.17 1.13 1.05
1.38 1.34 1.34 1.44 1.53 1.63 1.63 1.58 1.59 1.66 1.64 1.59 1.55 1.52 1.48 1.45 1.45 1.49 1.48 1.52 1.50 1.48 1.53 1.57 1.56 1.53 1.47 1.46 1.41 1.36 1.33 1.29 1.28 1.25 1.12 1.07 0.94 0.85